1000 dernières valeurs brutes
Date Temp Humidity Gust Pressure Rain
05 décembre 15:29 5.5°C 82% 3.2 km/h NNE 1004.6 hPa 0 mm
05 décembre 15:28 5.5°C 82% 3.2 km/h ENE 1004.6 hPa 0 mm
05 décembre 15:27 5.5°C 82% 3.7 km/h SSO 1004.5 hPa 0 mm
05 décembre 15:26 5.5°C 82% 3.7 km/h S 1004.5 hPa 0 mm
05 décembre 15:25 5.4°C 82% 4.2 km/h E 1004.5 hPa 0 mm
05 décembre 15:24 5.4°C 83% 3.2 km/h ENE 1004.5 hPa 0 mm
05 décembre 15:23 5.4°C 83% 2.6 km/h E 1004.5 hPa 0 mm
05 décembre 15:22 5.4°C 83% 3.7 km/h S 1004.5 hPa 0 mm
05 décembre 15:21 5.5°C 83% 5.3 km/h S 1004.6 hPa 0 mm
05 décembre 15:20 5.5°C 83% 6.3 km/h S 1004.6 hPa 0 mm
05 décembre 15:19 5.5°C 84% 5.8 km/h SSO 1004.6 hPa 0 mm
05 décembre 15:18 5.5°C 84% 5.8 km/h SE 1004.6 hPa 0 mm
05 décembre 15:17 5.5°C 83% 4.2 km/h S 1004.6 hPa 0 mm
05 décembre 15:16 5.4°C 84% 3.7 km/h OSO 1004.6 hPa 0 mm
05 décembre 15:15 5.4°C 84% 5.3 km/h S 1004.6 hPa 0 mm
05 décembre 15:14 5.3°C 85% 3.7 km/h E 1004.6 hPa 0 mm
05 décembre 15:13 5.3°C 85% 4.8 km/h SSO 1004.7 hPa 0 mm
05 décembre 15:12 5.3°C 85% 3.2 km/h SSE 1004.6 hPa 0 mm
05 décembre 15:11 5.2°C 85% 3.7 km/h NNE 1004.6 hPa 0 mm
05 décembre 15:10 5.1°C 85% 4.2 km/h NNE 1004.6 hPa 0 mm
05 décembre 15:09 5.1°C 85% 4.8 km/h ENE 1004.7 hPa 0 mm
05 décembre 15:08 5.2°C 85% 4.2 km/h E 1004.6 hPa 0 mm
05 décembre 15:07 5.1°C 85% 4.2 km/h SE 1004.6 hPa 0 mm
05 décembre 15:06 5.0°C 85% 4.8 km/h ENE 1004.6 hPa 0 mm
05 décembre 15:05 5.0°C 85% 3.2 km/h SSO 1004.6 hPa 0 mm
05 décembre 15:04 5.1°C 85% 3.2 km/h ESE 1004.7 hPa 0 mm
05 décembre 15:03 5.1°C 85% 3.2 km/h NE 1004.7 hPa 0 mm
05 décembre 15:02 5.1°C 85% 3.2 km/h NE 1004.7 hPa 0 mm
05 décembre 15:01 5.1°C 86% 2.6 km/h ENE 1004.7 hPa 0 mm
05 décembre 15:00 5.0°C 86% 2.6 km/h ENE 1004.6 hPa 0 mm
05 décembre 14:59 5.0°C 86% 2.6 km/h S 1004.6 hPa 0 mm
05 décembre 14:58 4.8°C 87% 4.8 km/h OSO 1004.7 hPa 0 mm
05 décembre 14:57 4.6°C 87% 3.7 km/h OSO 1004.6 hPa 0 mm
05 décembre 14:56 4.4°C 87% 3.2 km/h N 1004.6 hPa 0 mm
05 décembre 14:55 4.3°C 87% 2.1 km/h ENE 1004.6 hPa 0 mm
05 décembre 14:54 4.3°C 87% 0.5 km/h E 1004.6 hPa 0 mm
05 décembre 14:53 4.2°C 87% 0.5 km/h E 1004.6 hPa 0 mm
05 décembre 14:52 4.2°C 87% 1.1 km/h N 1004.6 hPa 0 mm
05 décembre 14:51 4.1°C 87% 2.6 km/h E 1004.7 hPa 0 mm
05 décembre 14:50 4.2°C 87% 3.7 km/h E 1004.8 hPa 0 mm
05 décembre 14:49 4.2°C 87% 5.3 km/h SSE 1004.8 hPa 0 mm
05 décembre 14:48 4.2°C 87% 6.9 km/h NE 1004.9 hPa 0 mm
05 décembre 14:47 4.2°C 87% 10.0 km/h NNE 1004.9 hPa 0 mm
05 décembre 14:46 4.3°C 87% 3.7 km/h NE 1004.9 hPa 0 mm
05 décembre 14:45 4.3°C 87% 3.7 km/h NE 1004.9 hPa 0 mm
05 décembre 14:44 4.3°C 87% 3.7 km/h NE 1004.9 hPa 0 mm
05 décembre 14:43 4.3°C 87% 5.3 km/h NE 1004.9 hPa 0 mm
05 décembre 14:42 4.3°C 87% 5.8 km/h E 1004.9 hPa 0 mm
05 décembre 14:41 4.3°C 87% 7.4 km/h ONO 1004.9 hPa 0 mm
05 décembre 14:40 4.3°C 86% 9.0 km/h O 1004.9 hPa 0 mm
05 décembre 14:39 4.5°C 86% 9.5 km/h SO 1005.0 hPa 0 mm
05 décembre 14:38 4.7°C 86% 9.5 km/h OSO 1005.0 hPa 0 mm
05 décembre 14:37 4.8°C 86% 8.4 km/h SO 1005.0 hPa 0 mm
05 décembre 14:36 4.9°C 86% 5.8 km/h OSO 1005.0 hPa 0 mm
05 décembre 14:35 4.8°C 85% 8.4 km/h SSE 1005.0 hPa 0 mm
05 décembre 14:34 5.0°C 85% 6.3 km/h N 1004.9 hPa 0 mm
05 décembre 14:33 5.2°C 85% 9.0 km/h S 1004.9 hPa 0 mm
05 décembre 14:32 5.3°C 85% 7.4 km/h ENE 1004.9 hPa 0 mm
05 décembre 14:31 5.3°C 85% 6.3 km/h E 1004.9 hPa 0 mm
05 décembre 14:30 5.3°C 86% 4.8 km/h ENE 1004.9 hPa 0 mm
05 décembre 14:29 5.2°C 86% 5.3 km/h SO 1004.9 hPa 0 mm
05 décembre 14:28 5.1°C 86% 3.7 km/h SO 1005.0 hPa 0 mm
05 décembre 14:27 4.9°C 86% 3.7 km/h SE 1005.0 hPa 0 mm
05 décembre 14:26 4.9°C 87% 4.2 km/h SO 1005.0 hPa 0 mm
05 décembre 14:25 4.7°C 86% 9.0 km/h SO 1005.0 hPa 0 mm
05 décembre 14:24 4.5°C 86% 8.4 km/h SO 1005.0 hPa 0 mm
05 décembre 14:23 4.5°C 86% 11.6 km/h OSO 1005.0 hPa 0 mm
05 décembre 14:22 4.7°C 87% 7.9 km/h SSO 1005.1 hPa 0 mm
05 décembre 14:21 4.6°C 86% 8.4 km/h SO 1005.1 hPa 0 mm
05 décembre 14:20 4.5°C 86% 6.9 km/h OSO 1005.0 hPa 0 mm
05 décembre 14:19 4.6°C 86% 9.0 km/h OSO 1005.0 hPa 0 mm
05 décembre 14:18 4.7°C 87% 8.4 km/h S 1005.0 hPa 0 mm
05 décembre 14:17 4.7°C 87% 10.0 km/h SSO 1005.0 hPa 0 mm
05 décembre 14:16 4.5°C 87% 6.9 km/h SO 1005.0 hPa 0 mm
05 décembre 14:15 4.5°C 86% 9.0 km/h OSO 1004.9 hPa 0 mm
05 décembre 14:14 4.4°C 86% 10.6 km/h O 1004.8 hPa 0 mm
05 décembre 14:13 4.4°C 86% 7.9 km/h O 1004.8 hPa 0 mm
05 décembre 14:12 4.5°C 87% 4.8 km/h OSO 1004.8 hPa 0 mm
05 décembre 14:11 4.5°C 86% 5.8 km/h SO 1004.8 hPa 0 mm
05 décembre 14:10 4.7°C 86% 6.9 km/h S 1004.8 hPa 0 mm
05 décembre 14:09 4.9°C 87% 8.4 km/h SO 1004.8 hPa 0 mm
05 décembre 14:08 4.8°C 87% 5.3 km/h ONO 1004.8 hPa 0 mm
05 décembre 14:07 4.9°C 88% 6.9 km/h S 1004.9 hPa 0 mm
05 décembre 14:06 4.7°C 88% 4.2 km/h OSO 1004.9 hPa 0 mm
05 décembre 14:05 4.7°C 89% 4.2 km/h OSO 1004.9 hPa 0 mm
05 décembre 14:04 4.6°C 89% 3.2 km/h O 1004.9 hPa 0 mm
05 décembre 14:03 4.4°C 89% 4.2 km/h SSO 1004.9 hPa 0 mm
05 décembre 14:02 4.1°C 89% 4.8 km/h S 1004.9 hPa 0 mm
05 décembre 14:01 4.0°C 89% 3.7 km/h SO 1004.9 hPa 0 mm
05 décembre 14:00 3.9°C 89% 4.8 km/h SSO 1004.9 hPa 0 mm
05 décembre 13:59 4.0°C 90% 5.8 km/h SO 1004.9 hPa 0 mm
05 décembre 13:58 4.0°C 90% 4.8 km/h SSO 1004.9 hPa 0 mm
05 décembre 13:57 3.9°C 90% 5.3 km/h SSO 1004.9 hPa 0 mm
05 décembre 13:56 3.9°C 90% 4.8 km/h S 1004.9 hPa 0 mm
05 décembre 13:55 3.6°C 90% 5.3 km/h SSO 1004.9 hPa 0 mm
05 décembre 13:54 3.5°C 90% 6.3 km/h SSO 1004.9 hPa 0 mm
05 décembre 13:53 3.4°C 90% 6.3 km/h SO 1004.9 hPa 0 mm
05 décembre 13:52 3.2°C 90% 6.3 km/h SSO 1004.9 hPa 0 mm
05 décembre 13:51 3.2°C 90% 6.9 km/h SSO 1004.9 hPa 0 mm
05 décembre 13:50 3.1°C 90% 5.8 km/h SO 1004.9 hPa 0 mm
05 décembre 13:49 3.0°C 90% 5.8 km/h SO 1004.9 hPa 0 mm
05 décembre 13:48 3.0°C 90% 5.8 km/h SSO 1004.9 hPa 0 mm
05 décembre 13:47 3.0°C 90% 6.3 km/h S 1004.9 hPa 0 mm
05 décembre 13:46 2.9°C 90% 5.3 km/h OSO 1004.9 hPa 0 mm
05 décembre 13:45 2.9°C 90% 5.8 km/h SSO 1004.9 hPa 0 mm
05 décembre 13:44 2.8°C 90% 6.9 km/h O 1004.9 hPa 0 mm
05 décembre 13:43 2.8°C 90% 6.9 km/h SSO 1004.9 hPa 0 mm
05 décembre 13:42 2.8°C 90% 6.9 km/h OSO 1004.9 hPa 0 mm
05 décembre 13:41 2.7°C 90% 7.4 km/h SO 1005.0 hPa 0 mm
05 décembre 13:40 2.7°C 91% 9.0 km/h SO 1004.9 hPa 0 mm
05 décembre 13:39 2.6°C 91% 7.9 km/h OSO 1004.9 hPa 0 mm
05 décembre 13:38 2.6°C 91% 6.3 km/h S 1004.9 hPa 0 mm
05 décembre 13:37 2.6°C 91% 6.9 km/h SSO 1004.9 hPa 0 mm
05 décembre 13:36 2.5°C 91% 4.8 km/h SO 1005.0 hPa 0 mm
05 décembre 13:35 2.5°C 91% 6.3 km/h SO 1005.1 hPa 0 mm
05 décembre 13:34 2.5°C 91% 7.9 km/h SO 1005.0 hPa 0 mm
05 décembre 13:33 2.5°C 91% 6.3 km/h S 1005.0 hPa 0 mm
05 décembre 13:32 2.5°C 91% 7.4 km/h SSO 1005.0 hPa 0 mm
05 décembre 13:31 2.4°C 90% 6.9 km/h SO 1005.0 hPa 0 mm
05 décembre 13:30 2.4°C 90% 5.8 km/h SO 1005.0 hPa 0 mm
05 décembre 13:29 2.4°C 90% 5.8 km/h SSO 1005.0 hPa 0 mm
05 décembre 13:28 2.3°C 90% 5.8 km/h SSO 1005.0 hPa 0 mm
05 décembre 13:27 2.3°C 90% 5.3 km/h SO 1005.0 hPa 0 mm
05 décembre 13:26 2.3°C 90% 5.3 km/h OSO 1005.0 hPa 0 mm
05 décembre 13:25 2.3°C 90% 5.3 km/h OSO 1005.0 hPa 0 mm
05 décembre 13:24 2.3°C 90% 3.2 km/h OSO 1005.1 hPa 0 mm
05 décembre 13:23 2.3°C 90% 5.3 km/h SO 1005.1 hPa 0.14 mm
05 décembre 13:22 2.4°C 90% 9.0 km/h SO 1005.2 hPa 0 mm
05 décembre 13:21 2.5°C 90% 11.6 km/h SO 1005.2 hPa 0.14 mm
05 décembre 13:20 2.6°C 89% 15.8 km/h SE 1005.3 hPa 0 mm
05 décembre 13:19 2.7°C 89% 17.4 km/h SSO 1005.4 hPa 0 mm
05 décembre 13:18 3.0°C 89% 16.4 km/h OSO 1005.4 hPa 0.14 mm
05 décembre 13:17 3.1°C 89% 15.8 km/h SO 1005.4 hPa 0 mm
05 décembre 13:16 3.1°C 89% 13.2 km/h O 1005.3 hPa 0 mm
05 décembre 13:15 3.1°C 89% 12.7 km/h SSE 1005.2 hPa 0 mm
05 décembre 13:14 3.2°C 89% 11.6 km/h E 1005.2 hPa 0 mm
05 décembre 13:13 3.2°C 89% 18.5 km/h ESE 1005.2 hPa 0 mm
05 décembre 13:12 3.3°C 89% 15.8 km/h SE 1005.1 hPa 0 mm
05 décembre 13:11 3.4°C 89% 16.9 km/h SE 1005.1 hPa 0 mm
05 décembre 13:10 3.5°C 89% 20.6 km/h ENE 1005.1 hPa 0 mm
05 décembre 13:09 3.5°C 89% 18.5 km/h E 1005.2 hPa 0 mm
05 décembre 13:08 3.6°C 89% 13.7 km/h NNE 1005.1 hPa 0 mm
05 décembre 13:07 3.7°C 89% 6.9 km/h ENE 1005.1 hPa 0 mm
05 décembre 13:06 3.8°C 88% 11.1 km/h ENE 1005.1 hPa 0 mm
05 décembre 13:05 3.9°C 88% 11.6 km/h NE 1005.1 hPa 0 mm
05 décembre 13:04 4.1°C 88% 13.2 km/h NNE 1005.0 hPa 0 mm
05 décembre 13:03 4.1°C 88% 9.5 km/h NE 1005.0 hPa 0 mm
05 décembre 13:02 4.1°C 88% 11.1 km/h ENE 1005.0 hPa 0 mm
05 décembre 13:01 4.3°C 87% 14.8 km/h NE 1005.0 hPa 0 mm
05 décembre 13:00 4.5°C 87% 14.2 km/h NNE 1005.0 hPa 0 mm
05 décembre 12:59 4.8°C 86% 15.3 km/h NE 1005.0 hPa 0 mm
05 décembre 12:58 5.1°C 87% 14.8 km/h ESE 1004.9 hPa 0 mm
05 décembre 12:57 5.2°C 86% 13.7 km/h SE 1004.9 hPa 0 mm
05 décembre 12:56 5.3°C 86% 12.1 km/h SSO 1005.0 hPa 0 mm
05 décembre 12:55 5.3°C 86% 14.2 km/h SSE 1005.0 hPa 0 mm
05 décembre 12:54 5.1°C 85% 10.6 km/h S 1005.0 hPa 0 mm
05 décembre 12:53 5.2°C 85% 11.6 km/h S 1005.0 hPa 0 mm
05 décembre 12:52 5.2°C 85% 8.4 km/h ESE 1005.1 hPa 0 mm
05 décembre 12:51 5.5°C 86% 12.1 km/h E 1005.1 hPa 0 mm
05 décembre 12:50 5.3°C 86% 7.4 km/h ESE 1005.1 hPa 0 mm
05 décembre 12:49 5.1°C 85% 9.0 km/h ENE 1005.1 hPa 0 mm
05 décembre 12:48 5.1°C 86% 12.1 km/h SE 1005.1 hPa 0 mm
05 décembre 12:47 5.0°C 86% 8.4 km/h NNE 1005.1 hPa 0 mm
05 décembre 12:46 4.9°C 87% 7.4 km/h NE 1005.1 hPa 0 mm
05 décembre 12:45 4.9°C 87% 6.3 km/h NNE 1005.1 hPa 0 mm
05 décembre 12:44 4.7°C 87% 5.8 km/h SE 1005.0 hPa 0 mm
05 décembre 12:43 4.6°C 87% 7.9 km/h SSO 1005.1 hPa 0 mm
05 décembre 12:42 4.4°C 86% 6.3 km/h S 1005.1 hPa 0 mm
05 décembre 12:41 4.4°C 86% 5.8 km/h O 1005.2 hPa 0 mm
05 décembre 12:40 4.5°C 86% 5.8 km/h SSO 1005.2 hPa 0 mm
05 décembre 12:39 4.5°C 86% 11.1 km/h SO 1005.1 hPa 0 mm
05 décembre 12:38 4.7°C 86% 11.6 km/h O 1005.1 hPa 0 mm
05 décembre 12:37 4.9°C 87% 10.0 km/h OSO 1005.1 hPa 0 mm
05 décembre 12:36 5.0°C 87% 5.3 km/h SO 1005.0 hPa 0 mm
05 décembre 12:35 4.9°C 86% 5.8 km/h SE 1005.0 hPa 0 mm
05 décembre 12:34 5.0°C 86% 5.8 km/h O 1005.0 hPa 0 mm
05 décembre 12:33 5.1°C 87% 6.9 km/h OSO 1005.0 hPa 0 mm
05 décembre 12:32 5.2°C 86% 7.4 km/h SO 1005.0 hPa 0 mm
05 décembre 12:31 5.3°C 86% 7.4 km/h SSO 1005.0 hPa 0 mm
05 décembre 12:30 5.3°C 86% 5.8 km/h SSE 1005.0 hPa 0 mm
05 décembre 12:29 5.1°C 86% 3.7 km/h NE 1005.0 hPa 0 mm
05 décembre 12:28 5.1°C 86% 4.2 km/h NNE 1005.0 hPa 0 mm
05 décembre 12:27 5.1°C 87% 4.8 km/h SSO 1005.0 hPa 0 mm
05 décembre 12:26 5.0°C 87% 4.8 km/h NE 1005.0 hPa 0 mm
05 décembre 12:25 5.0°C 87% 4.2 km/h SSO 1005.0 hPa 0 mm
05 décembre 12:24 4.9°C 87% 2.6 km/h ENE 1005.0 hPa 0 mm
05 décembre 12:23 4.9°C 87% 2.6 km/h E 1005.0 hPa 0 mm
05 décembre 12:22 4.9°C 87% 3.7 km/h S 1005.1 hPa 0 mm
05 décembre 12:21 4.9°C 87% 2.6 km/h S 1005.2 hPa 0 mm
05 décembre 12:20 4.8°C 87% 3.2 km/h SSE 1005.2 hPa 0 mm
05 décembre 12:19 4.8°C 87% 4.2 km/h S 1005.3 hPa 0 mm
05 décembre 12:18 4.9°C 87% 5.3 km/h O 1005.3 hPa 0 mm
05 décembre 12:17 4.8°C 87% 5.8 km/h ESE 1005.2 hPa 0 mm
05 décembre 12:16 4.8°C 87% 6.9 km/h OSO 1005.3 hPa 0 mm
05 décembre 12:15 4.8°C 87% 6.9 km/h OSO 1005.3 hPa 0 mm
05 décembre 12:14 4.8°C 87% 4.2 km/h SO 1005.3 hPa 0 mm
05 décembre 12:13 4.8°C 87% 4.8 km/h SSO 1005.3 hPa 0 mm
05 décembre 12:12 4.8°C 87% 2.6 km/h SE 1005.3 hPa 0 mm
05 décembre 12:11 4.8°C 87% 4.2 km/h ESE 1005.3 hPa 0 mm
05 décembre 12:10 4.9°C 87% 3.7 km/h SSO 1005.3 hPa 0 mm
05 décembre 12:09 4.9°C 87% 4.8 km/h SO 1005.4 hPa 0 mm
05 décembre 12:08 4.8°C 87% 3.2 km/h SSE 1005.3 hPa 0 mm
05 décembre 12:07 4.8°C 87% 4.8 km/h ENE 1005.3 hPa 0 mm
05 décembre 12:06 4.8°C 87% 2.6 km/h ENE 1005.3 hPa 0 mm
05 décembre 12:05 4.8°C 87% 4.8 km/h SO 1005.4 hPa 0 mm
05 décembre 12:04 4.8°C 87% 4.2 km/h E 1005.3 hPa 0 mm
05 décembre 12:03 4.8°C 87% 3.2 km/h ENE 1005.3 hPa 0 mm
05 décembre 12:02 4.8°C 87% 3.7 km/h NNE 1005.4 hPa 0 mm
05 décembre 12:01 4.8°C 87% 5.8 km/h NE 1005.4 hPa 0 mm
05 décembre 12:00 4.8°C 87% 4.8 km/h NE 1005.3 hPa 0 mm
05 décembre 11:59 4.8°C 87% 4.8 km/h ENE 1005.3 hPa 0 mm
05 décembre 11:58 4.7°C 87% 4.8 km/h ENE 1005.3 hPa 0 mm
05 décembre 11:57 4.7°C 87% 4.8 km/h N 1005.2 hPa 0 mm
05 décembre 11:56 4.7°C 87% 4.2 km/h SSE 1005.2 hPa 0 mm
05 décembre 11:55 4.7°C 87% 5.3 km/h SSO 1005.2 hPa 0 mm
05 décembre 11:54 4.7°C 87% 5.8 km/h NNE 1005.2 hPa 0 mm
05 décembre 11:53 4.7°C 87% 3.2 km/h NNE 1005.2 hPa 0 mm
05 décembre 11:52 4.7°C 87% 4.2 km/h NNE 1005.2 hPa 0 mm
05 décembre 11:51 4.6°C 87% 3.7 km/h NNE 1005.2 hPa 0 mm
05 décembre 11:50 4.6°C 87% 4.2 km/h NNE 1005.2 hPa 0 mm
05 décembre 11:49 4.6°C 88% 3.7 km/h NE 1005.3 hPa 0 mm
05 décembre 11:48 4.6°C 88% 5.3 km/h NE 1005.2 hPa 0 mm
05 décembre 11:47 4.6°C 88% 4.8 km/h NNE 1005.2 hPa 0 mm
05 décembre 11:46 4.7°C 88% 4.2 km/h NE 1005.3 hPa 0 mm
05 décembre 11:45 4.7°C 88% 5.3 km/h N 1005.4 hPa 0 mm
05 décembre 11:44 4.7°C 88% 5.3 km/h NNE 1005.4 hPa 0 mm
05 décembre 11:43 4.7°C 88% 5.3 km/h NE 1005.3 hPa 0 mm
05 décembre 11:42 4.8°C 88% 4.8 km/h NE 1005.3 hPa 0 mm
05 décembre 11:41 4.8°C 89% 4.8 km/h NE 1005.3 hPa 0 mm
05 décembre 11:40 4.8°C 89% 3.2 km/h NE 1005.3 hPa 0 mm
05 décembre 11:39 4.9°C 89% 4.2 km/h NE 1005.3 hPa 0 mm
05 décembre 11:38 4.9°C 89% 5.3 km/h NNE 1005.3 hPa 0 mm
05 décembre 11:37 4.8°C 89% 4.2 km/h NE 1005.3 hPa 0 mm
05 décembre 11:36 4.6°C 89% 4.8 km/h ESE 1005.3 hPa 0 mm
05 décembre 11:35 4.5°C 89% 3.2 km/h E 1005.3 hPa 0 mm
05 décembre 11:34 4.5°C 89% 4.2 km/h NE 1005.3 hPa 0 mm
05 décembre 11:33 4.4°C 88% 3.2 km/h NE 1005.3 hPa 0 mm
05 décembre 11:32 4.4°C 88% 3.2 km/h NNE 1005.3 hPa 0 mm
05 décembre 11:31 4.5°C 89% 3.2 km/h NE 1005.3 hPa 0 mm
05 décembre 11:30 4.4°C 88% 3.2 km/h NE 1005.3 hPa 0 mm
05 décembre 11:29 4.4°C 88% 3.2 km/h NE 1005.3 hPa 0 mm
05 décembre 11:28 4.4°C 88% 3.7 km/h NNE 1005.3 hPa 0 mm
05 décembre 11:27 4.4°C 89% 3.2 km/h NNE 1005.4 hPa 0 mm
05 décembre 11:26 4.4°C 88% 4.2 km/h NNE 1005.3 hPa 0 mm
05 décembre 11:25 4.4°C 88% 3.2 km/h NE 1005.3 hPa 0 mm
05 décembre 11:24 4.4°C 88% 3.2 km/h NNE 1005.2 hPa 0 mm
05 décembre 11:23 4.4°C 88% 3.2 km/h ESE 1005.2 hPa 0 mm
05 décembre 11:22 4.4°C 88% 2.6 km/h NNE 1005.2 hPa 0 mm
05 décembre 11:21 4.4°C 87% 3.7 km/h NE 1005.2 hPa 0 mm
05 décembre 11:20 4.5°C 87% 5.8 km/h NE 1005.2 hPa 0 mm
05 décembre 11:19 4.6°C 87% 4.8 km/h NNE 1005.2 hPa 0 mm
05 décembre 11:18 4.6°C 87% 3.2 km/h N 1005.2 hPa 0 mm
05 décembre 11:17 4.6°C 87% 2.1 km/h NE 1005.2 hPa 0 mm
05 décembre 11:16 4.6°C 87% 3.2 km/h E 1005.2 hPa 0 mm
05 décembre 11:15 4.7°C 87% 4.8 km/h NE 1005.2 hPa 0 mm
05 décembre 11:14 4.8°C 87% 4.8 km/h NNE 1005.2 hPa 0 mm
05 décembre 11:13 4.8°C 87% 5.3 km/h NE 1005.2 hPa 0 mm
05 décembre 11:12 4.9°C 87% 4.2 km/h ENE 1005.2 hPa 0 mm
05 décembre 11:11 4.9°C 86% 5.3 km/h NE 1005.2 hPa 0 mm
05 décembre 11:10 4.9°C 86% 6.3 km/h NE 1005.2 hPa 0 mm
05 décembre 11:09 4.9°C 87% 5.3 km/h NNE 1005.2 hPa 0 mm
05 décembre 11:08 4.9°C 87% 3.7 km/h NNE 1005.2 hPa 0 mm
05 décembre 11:07 4.9°C 86% 3.2 km/h NE 1005.2 hPa 0 mm
05 décembre 11:06 4.9°C 86% 3.2 km/h NE 1005.2 hPa 0 mm
05 décembre 11:05 5.0°C 86% 4.8 km/h NE 1005.2 hPa 0 mm
05 décembre 11:04 5.0°C 86% 5.8 km/h NE 1005.2 hPa 0 mm
05 décembre 11:03 5.0°C 85% 4.2 km/h NE 1005.2 hPa 0 mm
05 décembre 11:02 5.2°C 85% 5.8 km/h NE 1005.2 hPa 0 mm
05 décembre 11:01 5.4°C 85% 6.3 km/h NNE 1005.2 hPa 0 mm
05 décembre 11:00 5.4°C 85% 4.8 km/h NNE 1005.2 hPa 0 mm
05 décembre 10:59 5.4°C 84% 3.7 km/h NNE 1005.2 hPa 0 mm
05 décembre 10:58 5.5°C 85% 3.7 km/h N 1005.3 hPa 0 mm
05 décembre 10:57 5.4°C 84% 3.2 km/h NE 1005.3 hPa 0 mm
05 décembre 10:56 5.5°C 84% 2.1 km/h SE 1005.2 hPa 0 mm
05 décembre 10:55 5.3°C 84% 2.1 km/h SSE 1005.1 hPa 0 mm
05 décembre 10:54 5.1°C 84% 1.1 km/h E 1005.1 hPa 0 mm
05 décembre 10:53 5.1°C 83% 1.6 km/h SSE 1005.1 hPa 0 mm
05 décembre 10:52 5.1°C 84% 1.6 km/h E 1005.1 hPa 0 mm
05 décembre 10:51 5.3°C 84% 1.1 km/h SSE 1005.1 hPa 0 mm
05 décembre 10:50 5.2°C 85% 1.6 km/h S 1005.1 hPa 0 mm
05 décembre 10:49 5.1°C 85% 1.6 km/h SE 1005.1 hPa 0 mm
05 décembre 10:48 5.0°C 85% 1.6 km/h ESE 1005.0 hPa 0 mm
05 décembre 10:47 4.9°C 85% 0.0 km/h SE 1005.0 hPa 0 mm
05 décembre 10:46 4.8°C 85% 1.6 km/h SE 1005.0 hPa 0 mm
05 décembre 10:45 4.8°C 84% 1.6 km/h SE 1005.0 hPa 0 mm
05 décembre 10:44 4.8°C 85% 2.1 km/h SE 1005.1 hPa 0 mm
05 décembre 10:43 4.9°C 85% 2.6 km/h SE 1005.0 hPa 0 mm
05 décembre 10:42 4.8°C 85% 1.1 km/h SE 1005.0 hPa 0 mm
05 décembre 10:41 4.8°C 84% 1.6 km/h ESE 1005.0 hPa 0 mm
05 décembre 10:40 4.8°C 85% 1.6 km/h SE 1005.0 hPa 0 mm
05 décembre 10:39 4.9°C 85% 2.6 km/h ESE 1005.0 hPa 0 mm
05 décembre 10:38 4.9°C 85% 2.6 km/h E 1004.9 hPa 0 mm
05 décembre 10:37 4.9°C 85% 3.2 km/h E 1004.9 hPa 0 mm
05 décembre 10:36 4.9°C 85% 2.1 km/h ENE 1004.9 hPa 0 mm
05 décembre 10:35 5.0°C 85% 1.6 km/h E 1004.9 hPa 0 mm
05 décembre 10:34 5.0°C 85% 2.6 km/h ENE 1004.9 hPa 0 mm
05 décembre 10:33 5.0°C 85% 3.2 km/h E 1004.9 hPa 0 mm
05 décembre 10:32 5.1°C 85% 2.6 km/h NE 1004.9 hPa 0 mm
05 décembre 10:31 5.1°C 85% 2.6 km/h NE 1004.9 hPa 0 mm
05 décembre 10:30 5.0°C 85% 0.0 km/h N 1005.0 hPa 0 mm
05 décembre 10:29 4.7°C 85% 0.5 km/h N 1005.0 hPa 0 mm
05 décembre 10:28 4.6°C 85% 1.1 km/h N 1005.0 hPa 0 mm
05 décembre 10:27 4.6°C 85% 2.6 km/h NNE 1005.0 hPa 0 mm
05 décembre 10:26 4.7°C 86% 2.1 km/h SSE 1005.0 hPa 0 mm
05 décembre 10:25 4.6°C 86% 2.1 km/h ESE 1004.9 hPa 0 mm
05 décembre 10:24 4.6°C 86% 2.1 km/h ENE 1005.0 hPa 0 mm
05 décembre 10:23 4.6°C 87% 2.1 km/h S 1005.0 hPa 0 mm
05 décembre 10:22 4.6°C 88% 2.1 km/h E 1005.0 hPa 0 mm
05 décembre 10:21 4.5°C 88% 3.2 km/h SSO 1004.9 hPa 0 mm
05 décembre 10:20 4.5°C 88% 3.2 km/h O 1005.0 hPa 0 mm
05 décembre 10:19 4.5°C 88% 2.6 km/h ESE 1004.9 hPa 0 mm
05 décembre 10:18 4.3°C 88% 2.6 km/h S 1004.9 hPa 0 mm
05 décembre 10:17 4.3°C 88% 3.2 km/h NE 1005.0 hPa 0 mm
05 décembre 10:16 4.2°C 88% 3.2 km/h NE 1005.0 hPa 0 mm
05 décembre 10:15 4.1°C 88% 4.2 km/h SE 1004.9 hPa 0 mm
05 décembre 10:15 4.1°C 88% 3.2 km/h E 1004.9 hPa 0 mm
05 décembre 10:14 4.0°C 88% 3.7 km/h ONO 1004.9 hPa 0 mm
05 décembre 10:13 4.0°C 88% 3.2 km/h OSO 1004.9 hPa 0 mm
05 décembre 10:12 4.0°C 88% 2.6 km/h ONO 1004.9 hPa 0 mm
05 décembre 10:11 4.0°C 88% 2.1 km/h O 1004.8 hPa 0 mm
05 décembre 10:10 4.0°C 88% 1.1 km/h OSO 1004.8 hPa 0 mm
05 décembre 10:09 4.0°C 88% 1.1 km/h N 1004.9 hPa 0 mm
05 décembre 10:08 3.9°C 88% 0.5 km/h NNE 1004.9 hPa 0 mm
05 décembre 10:07 3.9°C 88% 0.0 km/h E 1004.9 hPa 0 mm
05 décembre 10:06 4.0°C 88% 0.0 km/h E 1004.9 hPa 0 mm
05 décembre 10:05 4.0°C 88% 0.0 km/h ENE 1004.9 hPa 0 mm
05 décembre 10:04 3.9°C 88% 0.0 km/h E 1004.9 hPa 0 mm
05 décembre 10:03 3.9°C 88% 0.0 km/h SE 1004.8 hPa 0 mm
05 décembre 10:02 3.8°C 88% 0.0 km/h SE 1004.8 hPa 0 mm
05 décembre 10:01 3.8°C 88% 0.5 km/h SE 1004.9 hPa 0 mm
05 décembre 10:00 3.7°C 88% 1.1 km/h S 1004.8 hPa 0 mm
05 décembre 09:59 3.6°C 88% 1.6 km/h S 1004.8 hPa 0 mm
05 décembre 09:58 3.6°C 88% 1.6 km/h S 1004.8 hPa 0 mm
05 décembre 09:57 3.6°C 88% 1.1 km/h ESE 1004.8 hPa 0 mm
05 décembre 09:56 3.5°C 89% 1.1 km/h ESE 1004.8 hPa 0 mm
05 décembre 09:55 3.4°C 89% 1.1 km/h ESE 1004.8 hPa 0 mm
05 décembre 09:54 3.3°C 89% 1.1 km/h SE 1004.8 hPa 0 mm
05 décembre 09:53 3.4°C 89% 1.1 km/h SSE 1004.8 hPa 0 mm
05 décembre 09:52 3.3°C 89% 1.6 km/h SE 1004.8 hPa 0 mm
05 décembre 09:51 3.3°C 88% 1.6 km/h ESE 1004.8 hPa 0 mm
05 décembre 09:50 3.3°C 89% 2.1 km/h ESE 1004.8 hPa 0 mm
05 décembre 09:49 3.2°C 89% 2.1 km/h ESE 1004.8 hPa 0 mm
05 décembre 09:48 3.2°C 89% 1.6 km/h E 1004.9 hPa 0 mm
05 décembre 09:47 3.1°C 89% 1.1 km/h SE 1004.9 hPa 0 mm
05 décembre 09:46 3.0°C 90% 1.1 km/h SE 1004.8 hPa 0 mm
05 décembre 09:45 2.9°C 90% 1.1 km/h SE 1004.9 hPa 0 mm
05 décembre 09:44 2.8°C 90% 1.6 km/h E 1004.9 hPa 0 mm
05 décembre 09:43 2.8°C 90% 1.6 km/h SE 1004.9 hPa 0 mm
05 décembre 09:42 2.8°C 90% 2.1 km/h SE 1004.9 hPa 0 mm
05 décembre 09:41 2.8°C 90% 2.6 km/h SE 1004.9 hPa 0 mm
05 décembre 09:40 2.8°C 90% 1.1 km/h ESE 1004.9 hPa 0 mm
05 décembre 09:39 2.8°C 90% 0.0 km/h ENE 1004.9 hPa 0 mm
05 décembre 09:38 2.8°C 90% 0.0 km/h N 1004.9 hPa 0 mm
05 décembre 09:37 2.8°C 90% 1.1 km/h N 1004.9 hPa 0 mm
05 décembre 09:36 2.8°C 90% 1.6 km/h N 1004.9 hPa 0 mm
05 décembre 09:35 2.7°C 90% 2.6 km/h N 1004.9 hPa 0 mm
05 décembre 09:34 2.8°C 90% 3.7 km/h NNE 1004.9 hPa 0 mm
05 décembre 09:33 2.8°C 90% 3.7 km/h N 1004.9 hPa 0 mm
05 décembre 09:32 2.7°C 90% 2.1 km/h N 1005.0 hPa 0 mm
05 décembre 09:31 2.7°C 90% 0.5 km/h S 1005.0 hPa 0 mm
05 décembre 09:30 2.7°C 90% 1.1 km/h S 1004.9 hPa 0 mm
05 décembre 09:29 2.7°C 90% 1.6 km/h SSO 1004.9 hPa 0 mm
05 décembre 09:28 2.7°C 90% 1.6 km/h SSE 1004.9 hPa 0 mm
05 décembre 09:27 2.7°C 90% 1.6 km/h ESE 1004.9 hPa 0 mm
05 décembre 09:26 2.7°C 90% 0.5 km/h N 1004.9 hPa 0 mm
05 décembre 09:25 2.6°C 89% 0.5 km/h N 1004.9 hPa 0 mm
05 décembre 09:24 2.6°C 89% 1.1 km/h N 1004.9 hPa 0 mm
05 décembre 09:23 2.6°C 89% 1.1 km/h N 1004.9 hPa 0 mm
05 décembre 09:22 2.6°C 89% 1.6 km/h N 1004.9 hPa 0 mm
05 décembre 09:21 2.6°C 89% 2.1 km/h SO 1004.9 hPa 0 mm
05 décembre 09:20 2.6°C 89% 3.7 km/h SO 1004.9 hPa 0 mm
05 décembre 09:19 2.7°C 89% 3.2 km/h S 1004.9 hPa 0 mm
05 décembre 09:18 2.7°C 89% 2.1 km/h SO 1004.8 hPa 0 mm
05 décembre 09:17 2.6°C 89% 1.6 km/h S 1004.8 hPa 0 mm
05 décembre 09:16 2.6°C 89% 1.6 km/h NE 1004.8 hPa 0 mm
05 décembre 09:15 2.6°C 88% 2.6 km/h NE 1004.8 hPa 0 mm
05 décembre 09:14 2.6°C 88% 2.6 km/h NNE 1004.8 hPa 0 mm
05 décembre 09:13 2.7°C 88% 3.2 km/h NNE 1004.8 hPa 0 mm
05 décembre 09:12 2.7°C 88% 3.7 km/h NNE 1004.9 hPa 0 mm
05 décembre 09:11 2.8°C 88% 2.6 km/h NNE 1004.8 hPa 0 mm
05 décembre 09:10 2.8°C 88% 3.2 km/h N 1004.8 hPa 0 mm
05 décembre 09:09 2.9°C 87% 2.1 km/h NNE 1004.8 hPa 0 mm
05 décembre 09:08 2.9°C 87% 1.6 km/h NE 1004.8 hPa 0 mm
05 décembre 09:07 2.9°C 87% 1.6 km/h E 1004.7 hPa 0 mm
05 décembre 09:06 3.0°C 87% 4.2 km/h NNE 1004.7 hPa 0 mm
05 décembre 09:05 3.1°C 87% 6.3 km/h E 1004.7 hPa 0 mm
05 décembre 09:04 3.1°C 87% 3.2 km/h N 1004.7 hPa 0 mm
05 décembre 09:03 3.2°C 87% 2.1 km/h N 1004.7 hPa 0 mm
05 décembre 09:02 3.2°C 87% 2.6 km/h N 1004.7 hPa 0 mm
05 décembre 09:01 3.2°C 87% 2.1 km/h N 1004.7 hPa 0 mm
05 décembre 09:00 3.2°C 87% 1.6 km/h NNE 1004.7 hPa 0 mm
05 décembre 08:59 3.2°C 86% 1.1 km/h NE 1004.7 hPa 0 mm
05 décembre 08:58 3.2°C 86% 2.1 km/h ENE 1004.6 hPa 0 mm
05 décembre 08:57 3.2°C 86% 2.1 km/h E 1004.6 hPa 0 mm
05 décembre 08:56 3.2°C 86% 0.0 km/h SSE 1004.7 hPa 0 mm
05 décembre 08:55 3.2°C 86% 0.0 km/h SE 1004.6 hPa 0 mm
05 décembre 08:54 3.2°C 86% 1.1 km/h E 1004.6 hPa 0 mm
05 décembre 08:53 3.3°C 86% 2.1 km/h NE 1004.6 hPa 0 mm
05 décembre 08:52 3.3°C 86% 2.1 km/h NE 1004.6 hPa 0 mm
05 décembre 08:51 3.3°C 86% 1.6 km/h NE 1004.6 hPa 0 mm
05 décembre 08:50 3.3°C 85% 1.6 km/h NE 1004.6 hPa 0 mm
05 décembre 08:49 3.3°C 85% 1.6 km/h NE 1004.6 hPa 0 mm
05 décembre 08:48 3.3°C 85% 1.6 km/h S 1004.6 hPa 0 mm
05 décembre 08:47 3.3°C 85% 2.1 km/h SSO 1004.6 hPa 0 mm
05 décembre 08:46 3.3°C 85% 2.1 km/h SE 1004.6 hPa 0 mm
05 décembre 08:45 3.3°C 85% 2.1 km/h ESE 1004.6 hPa 0 mm
05 décembre 08:44 3.3°C 86% 3.2 km/h SE 1004.6 hPa 0 mm
05 décembre 08:43 3.3°C 85% 3.7 km/h SSE 1004.6 hPa 0 mm
05 décembre 08:42 3.3°C 86% 4.2 km/h SSE 1004.6 hPa 0 mm
05 décembre 08:41 3.3°C 85% 4.8 km/h SSE 1004.5 hPa 0 mm
05 décembre 08:40 3.3°C 85% 5.8 km/h SSE 1004.5 hPa 0 mm
05 décembre 08:39 3.3°C 85% 7.9 km/h ESE 1004.5 hPa 0 mm
05 décembre 08:38 3.3°C 85% 6.3 km/h SE 1004.5 hPa 0 mm
05 décembre 08:37 3.3°C 85% 6.3 km/h SSE 1004.5 hPa 0 mm
05 décembre 08:36 3.3°C 85% 7.9 km/h ESE 1004.5 hPa 0 mm
05 décembre 08:35 3.3°C 85% 7.9 km/h ESE 1004.5 hPa 0 mm
05 décembre 08:34 3.3°C 85% 7.4 km/h ESE 1004.5 hPa 0 mm
05 décembre 08:33 3.3°C 85% 7.4 km/h SSE 1004.5 hPa 0 mm
05 décembre 08:32 3.3°C 85% 3.7 km/h SE 1004.5 hPa 0 mm
05 décembre 08:31 3.3°C 85% 4.2 km/h S 1004.6 hPa 0 mm
05 décembre 08:30 3.3°C 85% 4.8 km/h S 1004.6 hPa 0 mm
05 décembre 08:29 3.3°C 85% 5.8 km/h SSE 1004.6 hPa 0 mm
05 décembre 08:28 3.3°C 85% 6.3 km/h SSE 1004.6 hPa 0 mm
05 décembre 08:27 3.3°C 85% 5.3 km/h S 1004.6 hPa 0 mm
05 décembre 08:26 3.3°C 85% 4.2 km/h SSE 1004.5 hPa 0 mm
05 décembre 08:25 3.3°C 85% 4.2 km/h SSE 1004.5 hPa 0 mm
05 décembre 08:24 3.3°C 85% 4.2 km/h SSE 1004.5 hPa 0 mm
05 décembre 08:23 3.3°C 85% 4.2 km/h SSE 1004.5 hPa 0 mm
05 décembre 08:22 3.3°C 85% 4.8 km/h SE 1004.5 hPa 0 mm
05 décembre 08:21 3.4°C 85% 5.8 km/h ESE 1004.5 hPa 0 mm
05 décembre 08:20 3.3°C 85% 5.8 km/h SE 1004.5 hPa 0 mm
05 décembre 08:19 3.3°C 86% 6.9 km/h S 1004.5 hPa 0 mm
05 décembre 08:18 3.2°C 86% 5.8 km/h ESE 1004.5 hPa 0 mm
05 décembre 08:17 3.2°C 86% 5.3 km/h S 1004.5 hPa 0 mm
05 décembre 08:16 3.2°C 86% 4.8 km/h S 1004.5 hPa 0 mm
05 décembre 08:15 3.2°C 86% 4.2 km/h S 1004.5 hPa 0 mm
05 décembre 08:14 3.2°C 86% 4.8 km/h SSE 1004.5 hPa 0 mm
05 décembre 08:13 3.2°C 86% 7.4 km/h S 1004.5 hPa 0 mm
05 décembre 08:12 3.2°C 86% 6.9 km/h S 1004.5 hPa 0 mm
05 décembre 08:11 3.2°C 86% 8.4 km/h SE 1004.5 hPa 0 mm
05 décembre 08:10 3.2°C 86% 7.4 km/h SE 1004.5 hPa 0 mm
05 décembre 08:09 3.2°C 86% 8.4 km/h SSE 1004.5 hPa 0 mm
05 décembre 08:08 3.2°C 86% 7.4 km/h SSE 1004.5 hPa 0 mm
05 décembre 08:07 3.3°C 86% 6.3 km/h SE 1004.5 hPa 0 mm
05 décembre 08:06 3.2°C 86% 8.4 km/h SE 1004.5 hPa 0 mm
05 décembre 08:05 3.2°C 86% 5.8 km/h SSE 1004.5 hPa 0 mm
05 décembre 08:04 3.2°C 86% 8.4 km/h S 1004.6 hPa 0 mm
05 décembre 08:03 3.2°C 86% 9.5 km/h SSE 1004.6 hPa 0 mm
05 décembre 08:02 3.3°C 85% 7.9 km/h ESE 1004.6 hPa 0 mm
05 décembre 08:01 3.3°C 85% 8.4 km/h SE 1004.6 hPa 0 mm
05 décembre 08:00 3.3°C 85% 9.0 km/h SSO 1004.6 hPa 0 mm
05 décembre 07:59 3.3°C 85% 8.4 km/h ESE 1004.6 hPa 0 mm
05 décembre 07:58 3.2°C 85% 8.4 km/h SSE 1004.6 hPa 0 mm
05 décembre 07:57 3.2°C 85% 6.9 km/h S 1004.6 hPa 0 mm
05 décembre 07:56 3.2°C 85% 8.4 km/h SSE 1004.7 hPa 0 mm
05 décembre 07:55 3.2°C 85% 6.3 km/h S 1004.7 hPa 0 mm
05 décembre 07:54 3.3°C 85% 7.4 km/h S 1004.7 hPa 0 mm
05 décembre 07:53 3.3°C 84% 8.4 km/h SSO 1004.7 hPa 0 mm
05 décembre 07:52 3.3°C 84% 7.9 km/h SE 1004.7 hPa 0 mm
05 décembre 07:51 3.3°C 84% 7.4 km/h S 1004.7 hPa 0 mm
05 décembre 07:50 3.3°C 84% 7.9 km/h S 1004.7 hPa 0 mm
05 décembre 07:49 3.3°C 84% 7.9 km/h SSE 1004.7 hPa 0 mm
05 décembre 07:48 3.3°C 84% 7.9 km/h SSO 1004.6 hPa 0 mm
05 décembre 07:47 3.3°C 84% 7.4 km/h S 1004.6 hPa 0 mm
05 décembre 07:46 3.3°C 84% 7.4 km/h SSE 1004.6 hPa 0 mm
05 décembre 07:45 3.3°C 84% 7.4 km/h S 1004.6 hPa 0 mm
05 décembre 07:44 3.4°C 84% 5.8 km/h SSE 1004.7 hPa 0 mm
05 décembre 07:43 3.4°C 84% 8.4 km/h SSO 1004.7 hPa 0 mm
05 décembre 07:42 3.4°C 84% 8.4 km/h S 1004.7 hPa 0 mm
05 décembre 07:41 3.4°C 84% 6.9 km/h S 1004.7 hPa 0 mm
05 décembre 07:40 3.4°C 84% 6.9 km/h SSE 1004.7 hPa 0 mm
05 décembre 07:39 3.4°C 84% 7.9 km/h SE 1004.7 hPa 0 mm
05 décembre 07:38 3.4°C 84% 9.0 km/h S 1004.7 hPa 0 mm
05 décembre 07:37 3.3°C 84% 7.4 km/h SSE 1004.7 hPa 0 mm
05 décembre 07:36 3.3°C 84% 7.4 km/h SSO 1004.7 hPa 0 mm
05 décembre 07:35 3.3°C 84% 7.4 km/h S 1004.7 hPa 0 mm
05 décembre 07:34 3.3°C 84% 8.4 km/h S 1004.8 hPa 0 mm
05 décembre 07:33 3.3°C 84% 7.9 km/h SSO 1004.8 hPa 0 mm
05 décembre 07:32 3.4°C 84% 7.9 km/h SSO 1004.7 hPa 0 mm
05 décembre 07:31 3.4°C 84% 7.4 km/h SSO 1004.8 hPa 0 mm
05 décembre 07:30 3.4°C 84% 7.4 km/h SSE 1004.8 hPa 0 mm
05 décembre 07:29 3.4°C 84% 4.8 km/h SSO 1004.8 hPa 0 mm
05 décembre 07:28 3.4°C 84% 6.3 km/h S 1004.8 hPa 0 mm
05 décembre 07:27 3.5°C 83% 5.3 km/h SSO 1004.7 hPa 0 mm
05 décembre 07:26 3.5°C 84% 7.9 km/h SE 1004.7 hPa 0 mm
05 décembre 07:25 3.5°C 84% 7.4 km/h SSE 1004.8 hPa 0 mm
05 décembre 07:24 3.5°C 83% 6.3 km/h S 1004.8 hPa 0 mm
05 décembre 07:23 3.5°C 83% 6.9 km/h SSO 1004.8 hPa 0 mm
05 décembre 07:22 3.5°C 83% 5.3 km/h SSE 1004.7 hPa 0 mm
05 décembre 07:21 3.4°C 84% 9.5 km/h SE 1004.7 hPa 0 mm
05 décembre 07:20 3.4°C 84% 5.3 km/h S 1004.8 hPa 0 mm
05 décembre 07:19 3.4°C 84% 5.8 km/h S 1004.7 hPa 0 mm
05 décembre 07:18 3.4°C 84% 6.9 km/h SE 1004.7 hPa 0 mm
05 décembre 07:17 3.5°C 84% 6.3 km/h SSO 1004.8 hPa 0 mm
05 décembre 07:16 3.4°C 83% 4.2 km/h SSE 1004.8 hPa 0 mm
05 décembre 07:15 3.4°C 84% 5.8 km/h SSE 1004.8 hPa 0 mm
05 décembre 07:14 3.4°C 84% 7.9 km/h S 1004.8 hPa 0 mm
05 décembre 07:13 3.4°C 84% 8.4 km/h SSO 1004.8 hPa 0 mm
05 décembre 07:12 3.4°C 84% 5.3 km/h SE 1004.8 hPa 0 mm
05 décembre 07:11 3.4°C 84% 6.3 km/h SSO 1004.8 hPa 0 mm
05 décembre 07:10 3.5°C 84% 6.9 km/h SSO 1004.8 hPa 0 mm
05 décembre 07:09 3.5°C 83% 5.3 km/h S 1004.8 hPa 0 mm
05 décembre 07:08 3.5°C 83% 5.3 km/h SSO 1004.8 hPa 0 mm
05 décembre 07:07 3.6°C 83% 5.8 km/h S 1004.7 hPa 0 mm
05 décembre 07:06 3.6°C 83% 5.3 km/h SSE 1004.7 hPa 0 mm
05 décembre 07:05 3.7°C 83% 5.8 km/h SSE 1004.7 hPa 0 mm
05 décembre 07:04 3.7°C 82% 5.3 km/h S 1004.7 hPa 0 mm
05 décembre 07:03 3.7°C 82% 5.8 km/h SSE 1004.7 hPa 0 mm
05 décembre 07:02 3.7°C 83% 5.8 km/h SSE 1004.7 hPa 0 mm
05 décembre 07:01 3.7°C 83% 4.8 km/h ESE 1004.7 hPa 0 mm
05 décembre 07:00 3.7°C 82% 5.8 km/h SE 1004.7 hPa 0 mm
05 décembre 06:59 3.8°C 82% 5.8 km/h ESE 1004.7 hPa 0 mm
05 décembre 06:58 3.7°C 82% 4.2 km/h ESE 1004.7 hPa 0 mm
05 décembre 06:57 3.7°C 83% 5.3 km/h ESE 1004.7 hPa 0 mm
05 décembre 06:56 3.7°C 82% 8.4 km/h SSE 1004.7 hPa 0 mm
05 décembre 06:55 3.7°C 82% 5.8 km/h ESE 1004.7 hPa 0 mm
05 décembre 06:54 3.7°C 82% 4.2 km/h E 1004.7 hPa 0 mm
05 décembre 06:53 3.7°C 83% 6.9 km/h ESE 1004.7 hPa 0 mm
05 décembre 06:52 3.6°C 83% 7.4 km/h SSE 1004.7 hPa 0 mm
05 décembre 06:51 3.6°C 83% 7.4 km/h S 1004.8 hPa 0 mm
05 décembre 06:50 3.5°C 83% 7.9 km/h SSE 1004.8 hPa 0 mm
05 décembre 06:49 3.5°C 83% 6.9 km/h SSE 1004.8 hPa 0 mm
05 décembre 06:48 3.6°C 83% 7.9 km/h SSE 1004.8 hPa 0 mm
05 décembre 06:47 3.6°C 83% 7.9 km/h ESE 1004.8 hPa 0 mm
05 décembre 06:46 3.6°C 83% 5.3 km/h SE 1004.8 hPa 0 mm
05 décembre 06:45 3.5°C 83% 7.4 km/h S 1004.8 hPa 0 mm
05 décembre 06:44 3.6°C 83% 8.4 km/h SSE 1004.8 hPa 0 mm
05 décembre 06:43 3.7°C 83% 7.4 km/h SSE 1004.8 hPa 0 mm
05 décembre 06:42 3.6°C 83% 7.9 km/h SSE 1004.8 hPa 0 mm
05 décembre 06:41 3.7°C 83% 8.4 km/h SE 1004.8 hPa 0 mm
05 décembre 06:40 3.7°C 83% 10.0 km/h ESE 1004.8 hPa 0 mm
05 décembre 06:39 3.6°C 83% 8.4 km/h SSO 1004.8 hPa 0 mm
05 décembre 06:38 3.5°C 83% 6.3 km/h SE 1004.8 hPa 0 mm
05 décembre 06:37 3.5°C 83% 6.3 km/h SE 1004.8 hPa 0 mm
05 décembre 06:36 3.5°C 83% 7.4 km/h SSE 1004.8 hPa 0 mm
05 décembre 06:35 3.5°C 83% 4.2 km/h SE 1004.8 hPa 0 mm
05 décembre 06:34 3.6°C 83% 6.9 km/h S 1004.8 hPa 0 mm
05 décembre 06:33 3.6°C 83% 6.9 km/h SSE 1004.8 hPa 0 mm
05 décembre 06:32 3.6°C 83% 8.4 km/h S 1004.8 hPa 0 mm
05 décembre 06:31 3.5°C 83% 9.0 km/h SSE 1004.8 hPa 0 mm
05 décembre 06:30 3.5°C 84% 8.4 km/h SE 1004.8 hPa 0 mm
05 décembre 06:29 3.3°C 84% 7.9 km/h ESE 1004.8 hPa 0 mm
05 décembre 06:28 3.4°C 84% 4.8 km/h SSE 1004.8 hPa 0 mm
05 décembre 06:27 3.4°C 84% 6.3 km/h ESE 1004.9 hPa 0 mm
05 décembre 06:26 3.4°C 84% 6.9 km/h SSE 1004.9 hPa 0 mm
05 décembre 06:25 3.4°C 84% 7.4 km/h SE 1005.0 hPa 0 mm
05 décembre 06:24 3.4°C 84% 8.4 km/h S 1005.0 hPa 0 mm
05 décembre 06:23 3.4°C 84% 9.0 km/h S 1005.0 hPa 0 mm
05 décembre 06:22 3.4°C 84% 6.9 km/h S 1005.0 hPa 0 mm
05 décembre 06:21 3.5°C 83% 7.4 km/h SSE 1005.0 hPa 0 mm
05 décembre 06:20 3.5°C 83% 7.4 km/h SSO 1005.0 hPa 0 mm
05 décembre 06:19 3.6°C 83% 7.4 km/h SE 1005.0 hPa 0 mm
05 décembre 06:18 3.6°C 83% 6.9 km/h SSE 1005.0 hPa 0 mm
05 décembre 06:17 3.5°C 83% 11.6 km/h SSE 1005.0 hPa 0 mm
05 décembre 06:16 3.4°C 83% 12.7 km/h SSO 1005.0 hPa 0 mm
05 décembre 06:15 3.6°C 82% 10.6 km/h SE 1005.0 hPa 0 mm
05 décembre 06:14 3.6°C 82% 12.1 km/h S 1005.0 hPa 0 mm
05 décembre 06:13 3.7°C 82% 8.4 km/h SE 1004.9 hPa 0 mm
05 décembre 06:12 3.7°C 82% 7.9 km/h SSE 1004.9 hPa 0 mm
05 décembre 06:11 3.8°C 82% 9.5 km/h SSE 1004.9 hPa 0 mm
05 décembre 06:10 3.8°C 81% 8.4 km/h ESE 1004.8 hPa 0 mm
05 décembre 06:09 3.8°C 81% 10.0 km/h SE 1004.8 hPa 0 mm
05 décembre 06:08 3.9°C 81% 14.2 km/h SE 1004.8 hPa 0 mm
05 décembre 06:07 3.8°C 81% 11.1 km/h SSE 1004.8 hPa 0 mm
05 décembre 06:06 3.8°C 81% 11.1 km/h S 1004.8 hPa 0 mm
05 décembre 06:05 3.8°C 81% 11.1 km/h ESE 1004.8 hPa 0 mm
05 décembre 06:04 3.8°C 81% 10.6 km/h SSE 1004.9 hPa 0 mm
05 décembre 06:03 3.7°C 82% 10.6 km/h SE 1004.9 hPa 0 mm
05 décembre 06:02 3.7°C 81% 10.0 km/h ESE 1004.9 hPa 0 mm
05 décembre 06:01 3.8°C 82% 10.6 km/h ESE 1004.9 hPa 0 mm
05 décembre 06:00 3.8°C 82% 11.6 km/h SE 1004.9 hPa 0 mm
05 décembre 05:59 3.7°C 81% 9.0 km/h S 1004.9 hPa 0 mm
05 décembre 05:58 3.8°C 82% 10.0 km/h S 1004.9 hPa 0 mm
05 décembre 05:57 3.8°C 82% 11.1 km/h ESE 1005.0 hPa 0 mm
05 décembre 05:56 3.7°C 82% 11.6 km/h SSE 1005.0 hPa 0 mm
05 décembre 05:55 3.8°C 82% 8.4 km/h SSO 1005.0 hPa 0 mm
05 décembre 05:54 3.8°C 81% 10.6 km/h E 1004.9 hPa 0 mm
05 décembre 05:53 3.8°C 81% 12.1 km/h ESE 1004.9 hPa 0 mm
05 décembre 05:52 3.8°C 81% 10.6 km/h SSE 1004.9 hPa 0 mm
05 décembre 05:51 3.8°C 81% 11.6 km/h SE 1004.9 hPa 0 mm
05 décembre 05:50 3.8°C 81% 10.6 km/h SSE 1004.9 hPa 0 mm
05 décembre 05:49 3.8°C 81% 11.6 km/h SE 1004.9 hPa 0 mm
05 décembre 05:48 3.8°C 81% 10.6 km/h SSE 1004.9 hPa 0 mm
05 décembre 05:47 3.8°C 81% 10.6 km/h SSE 1004.9 hPa 0 mm
05 décembre 05:46 3.8°C 82% 13.2 km/h SE 1005.0 hPa 0 mm
05 décembre 05:45 3.8°C 82% 12.7 km/h ESE 1005.0 hPa 0 mm
05 décembre 05:44 3.7°C 82% 11.6 km/h SSE 1005.0 hPa 0 mm
05 décembre 05:43 3.7°C 82% 12.1 km/h SE 1005.0 hPa 0 mm
05 décembre 05:42 3.7°C 82% 11.1 km/h SSE 1005.0 hPa 0 mm
05 décembre 05:41 3.7°C 82% 10.0 km/h SE 1005.0 hPa 0 mm
05 décembre 05:40 3.8°C 82% 12.1 km/h SSE 1005.0 hPa 0 mm
05 décembre 05:39 3.8°C 82% 11.6 km/h SE 1005.1 hPa 0 mm
05 décembre 05:38 3.8°C 82% 12.1 km/h SSE 1005.1 hPa 0 mm
05 décembre 05:37 3.7°C 82% 12.7 km/h SSE 1005.1 hPa 0 mm
05 décembre 05:36 3.7°C 82% 14.8 km/h S 1005.1 hPa 0 mm
05 décembre 05:35 3.6°C 83% 12.1 km/h SE 1005.1 hPa 0 mm
05 décembre 05:34 3.5°C 83% 13.2 km/h SSE 1005.2 hPa 0 mm
05 décembre 05:33 3.5°C 83% 12.1 km/h SE 1005.2 hPa 0 mm
05 décembre 05:32 3.5°C 83% 10.6 km/h SE 1005.2 hPa 0 mm
05 décembre 05:31 3.5°C 83% 11.1 km/h ESE 1005.2 hPa 0 mm
05 décembre 05:30 3.5°C 83% 10.0 km/h SSE 1005.2 hPa 0 mm
05 décembre 05:29 3.5°C 83% 8.4 km/h SE 1005.2 hPa 0 mm
05 décembre 05:28 3.5°C 83% 12.1 km/h SE 1005.3 hPa 0 mm
05 décembre 05:27 3.5°C 83% 10.0 km/h SE 1005.3 hPa 0 mm
05 décembre 05:26 3.5°C 83% 10.6 km/h SSE 1005.3 hPa 0 mm
05 décembre 05:25 3.5°C 83% 13.2 km/h SSE 1005.4 hPa 0 mm
05 décembre 05:24 3.5°C 83% 10.6 km/h SSE 1005.4 hPa 0 mm
05 décembre 05:23 3.5°C 83% 12.1 km/h SE 1005.4 hPa 0 mm
05 décembre 05:22 3.4°C 83% 14.2 km/h S 1005.4 hPa 0 mm
05 décembre 05:21 3.5°C 83% 10.6 km/h S 1005.3 hPa 0 mm
05 décembre 05:20 3.3°C 83% 13.2 km/h SSE 1005.3 hPa 0 mm
05 décembre 05:19 3.3°C 84% 11.6 km/h SSE 1005.4 hPa 0 mm
05 décembre 05:18 3.3°C 84% 12.1 km/h SSE 1005.3 hPa 0 mm
05 décembre 05:17 3.2°C 84% 10.0 km/h ESE 1005.3 hPa 0 mm
05 décembre 05:16 3.3°C 84% 10.0 km/h SSE 1005.3 hPa 0 mm
05 décembre 05:15 3.3°C 83% 11.1 km/h SSE 1005.3 hPa 0 mm
05 décembre 05:14 3.2°C 84% 10.6 km/h SSE 1005.2 hPa 0 mm
05 décembre 05:13 3.2°C 83% 11.6 km/h ESE 1005.2 hPa 0 mm
05 décembre 05:12 3.3°C 83% 9.0 km/h S 1005.2 hPa 0 mm
05 décembre 05:11 3.3°C 83% 9.0 km/h SE 1005.2 hPa 0 mm
05 décembre 05:10 3.4°C 83% 9.5 km/h SE 1005.2 hPa 0 mm
05 décembre 05:09 3.4°C 83% 8.4 km/h SSE 1005.2 hPa 0 mm
05 décembre 05:08 3.4°C 83% 9.0 km/h SE 1005.3 hPa 0 mm
05 décembre 05:07 3.5°C 83% 8.4 km/h ESE 1005.3 hPa 0 mm
05 décembre 05:06 3.4°C 83% 10.0 km/h ESE 1005.3 hPa 0 mm
05 décembre 05:05 3.4°C 83% 11.1 km/h SE 1005.3 hPa 0 mm
05 décembre 05:04 3.4°C 83% 6.9 km/h SE 1005.3 hPa 0 mm
05 décembre 05:03 3.3°C 84% 9.5 km/h ESE 1005.4 hPa 0 mm
05 décembre 05:02 3.4°C 83% 8.4 km/h ESE 1005.3 hPa 0 mm
05 décembre 05:01 3.4°C 83% 10.0 km/h SE 1005.4 hPa 0 mm
05 décembre 05:00 3.4°C 84% 10.0 km/h SSE 1005.4 hPa 0 mm
05 décembre 04:59 3.3°C 84% 10.6 km/h SSE 1005.4 hPa 0 mm
05 décembre 04:58 3.2°C 84% 6.9 km/h SE 1005.4 hPa 0 mm
05 décembre 04:57 3.3°C 84% 7.9 km/h SE 1005.4 hPa 0 mm
05 décembre 04:56 3.2°C 84% 9.0 km/h ESE 1005.4 hPa 0 mm
05 décembre 04:55 3.2°C 84% 7.4 km/h SSE 1005.5 hPa 0 mm
05 décembre 04:54 3.1°C 84% 10.6 km/h SSE 1005.5 hPa 0 mm
05 décembre 04:53 3.1°C 85% 7.4 km/h SE 1005.5 hPa 0 mm
05 décembre 04:52 3.1°C 85% 9.0 km/h SE 1005.5 hPa 0 mm
05 décembre 04:51 3.1°C 85% 7.4 km/h SSE 1005.5 hPa 0 mm
05 décembre 04:50 3.0°C 85% 6.3 km/h SE 1005.5 hPa 0 mm
05 décembre 04:49 3.1°C 85% 7.4 km/h ESE 1005.5 hPa 0 mm
05 décembre 04:48 3.1°C 85% 7.9 km/h SSE 1005.5 hPa 0 mm
05 décembre 04:47 3.1°C 85% 10.0 km/h ESE 1005.5 hPa 0 mm
05 décembre 04:46 3.1°C 85% 9.5 km/h SE 1005.5 hPa 0 mm
05 décembre 04:45 3.1°C 85% 9.5 km/h SE 1005.6 hPa 0 mm
05 décembre 04:44 3.1°C 85% 10.0 km/h SSE 1005.6 hPa 0 mm
05 décembre 04:43 3.0°C 85% 10.0 km/h SSE 1005.6 hPa 0 mm
05 décembre 04:42 3.1°C 85% 11.1 km/h SE 1005.6 hPa 0 mm
05 décembre 04:41 3.0°C 85% 9.5 km/h ESE 1005.6 hPa 0 mm
05 décembre 04:40 3.0°C 85% 9.0 km/h SE 1005.6 hPa 0 mm
05 décembre 04:39 3.0°C 85% 10.0 km/h S 1005.6 hPa 0 mm
05 décembre 04:38 3.0°C 85% 10.0 km/h SE 1005.6 hPa 0 mm
05 décembre 04:37 3.1°C 85% 8.4 km/h SSE 1005.6 hPa 0 mm
05 décembre 04:36 3.1°C 85% 7.9 km/h SE 1005.6 hPa 0 mm
05 décembre 04:35 3.0°C 85% 10.6 km/h SE 1005.6 hPa 0 mm
05 décembre 04:34 3.0°C 85% 10.6 km/h ESE 1005.6 hPa 0 mm
05 décembre 04:33 3.0°C 85% 8.4 km/h SSE 1005.7 hPa 0 mm
05 décembre 04:32 3.1°C 85% 8.4 km/h SE 1005.6 hPa 0 mm
05 décembre 04:31 3.1°C 85% 9.0 km/h SE 1005.6 hPa 0 mm
05 décembre 04:30 3.0°C 85% 10.0 km/h SSE 1005.7 hPa 0 mm
05 décembre 04:29 3.0°C 85% 9.0 km/h SE 1005.6 hPa 0 mm
05 décembre 04:28 3.0°C 85% 9.5 km/h SSE 1005.7 hPa 0 mm
05 décembre 04:27 3.0°C 85% 10.6 km/h ESE 1005.7 hPa 0 mm
05 décembre 04:26 3.0°C 85% 9.5 km/h SE 1005.7 hPa 0 mm
05 décembre 04:25 3.0°C 85% 10.0 km/h ESE 1005.7 hPa 0 mm
05 décembre 04:24 3.0°C 85% 9.5 km/h ESE 1005.7 hPa 0 mm
05 décembre 04:23 3.0°C 85% 7.4 km/h ESE 1005.7 hPa 0 mm
05 décembre 04:22 3.0°C 85% 8.4 km/h SE 1005.7 hPa 0 mm
05 décembre 04:21 3.0°C 85% 10.0 km/h SE 1005.7 hPa 0 mm
05 décembre 04:20 3.0°C 85% 9.0 km/h SE 1005.7 hPa 0 mm
05 décembre 04:19 3.0°C 85% 8.4 km/h SSE 1005.8 hPa 0 mm
05 décembre 04:18 3.0°C 85% 7.9 km/h SSE 1005.7 hPa 0 mm
05 décembre 04:17 3.0°C 85% 9.0 km/h SSE 1005.8 hPa 0 mm
05 décembre 04:16 3.0°C 85% 10.6 km/h SE 1005.8 hPa 0 mm
05 décembre 04:15 3.0°C 85% 9.0 km/h ESE 1005.8 hPa 0 mm
05 décembre 04:14 3.0°C 85% 8.4 km/h SSE 1005.8 hPa 0 mm
05 décembre 04:13 3.0°C 85% 6.9 km/h SE 1005.9 hPa 0 mm
05 décembre 04:12 3.0°C 85% 6.9 km/h SE 1005.9 hPa 0 mm
05 décembre 04:11 3.0°C 85% 6.9 km/h SSE 1005.9 hPa 0 mm
05 décembre 04:10 3.0°C 85% 9.0 km/h SE 1005.9 hPa 0 mm
05 décembre 04:09 3.0°C 85% 9.0 km/h SSE 1005.9 hPa 0 mm
05 décembre 04:08 3.1°C 85% 8.4 km/h SSE 1005.9 hPa 0 mm
05 décembre 04:07 3.2°C 85% 9.0 km/h SSE 1006.0 hPa 0 mm
05 décembre 04:06 3.1°C 85% 10.0 km/h E 1006.0 hPa 0 mm
05 décembre 04:05 3.1°C 85% 9.5 km/h SE 1006.0 hPa 0 mm
05 décembre 04:04 3.1°C 85% 7.9 km/h SE 1006.0 hPa 0 mm
05 décembre 04:03 3.1°C 85% 9.0 km/h SE 1006.0 hPa 0 mm
05 décembre 04:02 3.1°C 85% 8.4 km/h ESE 1006.0 hPa 0 mm
05 décembre 04:01 3.0°C 85% 7.9 km/h SE 1005.9 hPa 0 mm
05 décembre 04:00 3.0°C 85% 9.0 km/h SE 1006.0 hPa 0 mm
05 décembre 03:59 3.0°C 85% 8.4 km/h SSE 1005.9 hPa 0 mm
05 décembre 03:58 3.1°C 85% 6.9 km/h SSE 1006.0 hPa 0 mm
05 décembre 03:57 3.2°C 85% 9.0 km/h SSE 1006.0 hPa 0 mm
05 décembre 03:56 3.1°C 85% 9.0 km/h ESE 1006.0 hPa 0 mm
05 décembre 03:55 3.2°C 84% 7.4 km/h SE 1006.0 hPa 0 mm
05 décembre 03:54 3.3°C 84% 9.5 km/h S 1006.1 hPa 0 mm
05 décembre 03:53 3.3°C 84% 10.6 km/h SE 1006.0 hPa 0 mm
05 décembre 03:52 3.4°C 84% 9.5 km/h SSE 1006.1 hPa 0 mm
05 décembre 03:51 3.4°C 84% 10.6 km/h SSE 1006.1 hPa 0 mm
05 décembre 03:50 3.3°C 85% 10.6 km/h S 1006.1 hPa 0 mm
05 décembre 03:49 3.2°C 85% 11.6 km/h SSE 1006.1 hPa 0 mm
05 décembre 03:48 3.2°C 85% 9.5 km/h SE 1006.1 hPa 0 mm
05 décembre 03:47 3.1°C 85% 10.6 km/h S 1006.1 hPa 0 mm
05 décembre 03:46 3.1°C 85% 10.0 km/h SSE 1006.2 hPa 0 mm
05 décembre 03:45 3.1°C 85% 9.5 km/h SE 1006.2 hPa 0 mm
05 décembre 03:44 3.1°C 85% 10.6 km/h S 1006.2 hPa 0 mm
05 décembre 03:43 3.1°C 85% 11.1 km/h SSE 1006.2 hPa 0 mm
05 décembre 03:42 3.1°C 85% 9.5 km/h SE 1006.2 hPa 0 mm
05 décembre 03:41 3.1°C 85% 11.6 km/h SSE 1006.2 hPa 0 mm
05 décembre 03:40 3.1°C 85% 13.2 km/h SSE 1006.2 hPa 0 mm
05 décembre 03:39 3.1°C 85% 11.6 km/h SSO 1006.3 hPa 0 mm
05 décembre 03:38 3.1°C 85% 10.6 km/h ESE 1006.2 hPa 0 mm
05 décembre 03:37 3.1°C 85% 11.1 km/h S 1006.3 hPa 0 mm
05 décembre 03:36 3.0°C 86% 12.7 km/h SSE 1006.3 hPa 0 mm
05 décembre 03:35 3.0°C 86% 9.5 km/h SE 1006.3 hPa 0 mm
05 décembre 03:34 3.0°C 85% 9.0 km/h SE 1006.3 hPa 0 mm
05 décembre 03:33 3.1°C 85% 8.4 km/h SSE 1006.4 hPa 0 mm
05 décembre 03:32 3.0°C 86% 9.5 km/h SE 1006.4 hPa 0 mm
05 décembre 03:31 3.0°C 86% 9.0 km/h SE 1006.4 hPa 0 mm
05 décembre 03:30 3.0°C 86% 6.9 km/h SE 1006.5 hPa 0 mm
05 décembre 03:29 3.0°C 86% 7.4 km/h S 1006.5 hPa 0 mm
05 décembre 03:28 3.0°C 86% 7.4 km/h SE 1006.5 hPa 0 mm
05 décembre 03:27 3.0°C 86% 7.9 km/h SSE 1006.5 hPa 0 mm
05 décembre 03:26 3.0°C 86% 8.4 km/h SSE 1006.5 hPa 0 mm
05 décembre 03:25 3.0°C 86% 6.3 km/h SE 1006.5 hPa 0 mm
05 décembre 03:24 3.0°C 86% 8.4 km/h SSE 1006.6 hPa 0 mm
05 décembre 03:23 3.0°C 86% 8.4 km/h ESE 1006.6 hPa 0 mm
05 décembre 03:22 3.0°C 86% 6.9 km/h ESE 1006.6 hPa 0 mm
05 décembre 03:21 2.9°C 86% 8.4 km/h SSE 1006.6 hPa 0 mm
05 décembre 03:20 3.0°C 86% 7.9 km/h SSE 1006.6 hPa 0 mm
05 décembre 03:19 3.0°C 86% 9.0 km/h ESE 1006.6 hPa 0 mm
05 décembre 03:18 2.9°C 86% 9.0 km/h SE 1006.6 hPa 0 mm
05 décembre 03:17 3.0°C 86% 6.3 km/h S 1006.6 hPa 0 mm
05 décembre 03:16 3.0°C 86% 7.4 km/h SSE 1006.6 hPa 0 mm
05 décembre 03:15 3.0°C 86% 7.9 km/h S 1006.6 hPa 0 mm
05 décembre 03:14 3.1°C 86% 6.3 km/h SSE 1006.6 hPa 0 mm
05 décembre 03:13 3.1°C 86% 7.4 km/h SSE 1006.6 hPa 0 mm
05 décembre 03:12 3.1°C 86% 7.4 km/h SE 1006.7 hPa 0 mm
05 décembre 03:11 3.1°C 86% 6.3 km/h SE 1006.7 hPa 0 mm
05 décembre 03:10 3.1°C 86% 10.0 km/h SE 1006.7 hPa 0 mm
05 décembre 03:09 3.1°C 86% 7.9 km/h ESE 1006.7 hPa 0 mm
05 décembre 03:08 3.1°C 86% 8.4 km/h S 1006.8 hPa 0 mm
05 décembre 03:07 3.1°C 86% 7.9 km/h SSE 1006.8 hPa 0 mm
05 décembre 03:06 3.0°C 86% 7.4 km/h SSE 1006.8 hPa 0 mm
05 décembre 03:05 3.1°C 86% 10.6 km/h S 1006.8 hPa 0 mm
05 décembre 03:04 3.0°C 86% 10.6 km/h S 1006.9 hPa 0 mm
05 décembre 03:03 3.0°C 86% 10.0 km/h SSE 1006.9 hPa 0 mm
05 décembre 03:02 3.0°C 86% 10.0 km/h SSE 1006.9 hPa 0 mm
05 décembre 03:01 3.0°C 86% 9.0 km/h S 1006.9 hPa 0 mm
05 décembre 03:00 3.0°C 86% 7.4 km/h SSE 1006.9 hPa 0 mm
05 décembre 02:59 3.0°C 86% 9.0 km/h SE 1006.9 hPa 0 mm
05 décembre 02:58 3.0°C 86% 9.0 km/h S 1007.0 hPa 0 mm
05 décembre 02:57 3.0°C 87% 8.4 km/h SSE 1007.0 hPa 0 mm
05 décembre 02:56 2.8°C 87% 10.0 km/h SSO 1007.1 hPa 0 mm
05 décembre 02:55 2.8°C 87% 7.9 km/h S 1007.1 hPa 0 mm
05 décembre 02:54 2.7°C 87% 7.9 km/h SE 1007.1 hPa 0 mm
05 décembre 02:53 2.5°C 88% 9.5 km/h ESE 1007.1 hPa 0 mm
05 décembre 02:52 2.5°C 88% 7.4 km/h SSE 1007.2 hPa 0 mm
05 décembre 02:51 2.2°C 89% 9.5 km/h ESE 1007.2 hPa 0 mm
05 décembre 02:50 2.0°C 88% 6.3 km/h SE 1007.2 hPa 0 mm
05 décembre 02:49 2.0°C 88% 5.3 km/h SSO 1007.3 hPa 0 mm
05 décembre 02:48 2.1°C 88% 3.7 km/h S 1007.3 hPa 0 mm
05 décembre 02:47 2.2°C 88% 3.7 km/h SO 1007.3 hPa 0 mm
05 décembre 02:46 2.3°C 87% 4.8 km/h S 1007.3 hPa 0 mm
05 décembre 02:45 2.4°C 87% 6.3 km/h S 1007.3 hPa 0 mm
05 décembre 02:44 2.4°C 87% 7.9 km/h SSE 1007.2 hPa 0 mm
05 décembre 02:43 2.5°C 87% 7.4 km/h SSE 1007.2 hPa 0 mm
05 décembre 02:42 2.6°C 87% 6.3 km/h SSE 1007.2 hPa 0 mm
05 décembre 02:41 2.6°C 87% 6.3 km/h SSE 1007.2 hPa 0 mm
05 décembre 02:40 2.8°C 87% 7.4 km/h S 1007.2 hPa 0 mm
05 décembre 02:39 2.8°C 86% 7.9 km/h S 1007.2 hPa 0 mm
05 décembre 02:38 2.9°C 86% 7.9 km/h S 1007.3 hPa 0 mm
05 décembre 02:37 2.9°C 86% 6.9 km/h S 1007.3 hPa 0 mm
05 décembre 02:36 3.0°C 86% 7.4 km/h S 1007.3 hPa 0 mm
05 décembre 02:35 3.0°C 86% 6.9 km/h S 1007.2 hPa 0 mm
05 décembre 02:34 3.0°C 86% 7.9 km/h SE 1007.3 hPa 0 mm
05 décembre 02:33 3.0°C 87% 7.9 km/h S 1007.3 hPa 0 mm
05 décembre 02:32 2.9°C 87% 9.0 km/h ESE 1007.3 hPa 0 mm
05 décembre 02:31 2.8°C 86% 7.9 km/h S 1007.3 hPa 0 mm
05 décembre 02:30 3.0°C 86% 6.9 km/h SSE 1007.3 hPa 0 mm
05 décembre 02:29 3.1°C 86% 7.4 km/h SE 1007.3 hPa 0 mm
05 décembre 02:28 3.3°C 86% 4.8 km/h SE 1007.3 hPa 0 mm
05 décembre 02:27 3.3°C 85% 5.3 km/h SE 1007.3 hPa 0 mm
05 décembre 02:26 3.3°C 85% 4.2 km/h SE 1007.3 hPa 0 mm
05 décembre 02:25 3.3°C 85% 5.3 km/h SSE 1007.3 hPa 0 mm
05 décembre 02:24 3.4°C 86% 3.2 km/h SE 1007.4 hPa 0 mm
05 décembre 02:23 3.3°C 86% 3.7 km/h SE 1007.4 hPa 0 mm
05 décembre 02:22 3.4°C 85% 4.8 km/h SE 1007.3 hPa 0 mm
05 décembre 02:21 3.4°C 85% 4.8 km/h SE 1007.4 hPa 0 mm
05 décembre 02:20 3.4°C 85% 4.8 km/h ESE 1007.4 hPa 0 mm
05 décembre 02:19 3.4°C 86% 5.8 km/h E 1007.4 hPa 0 mm
05 décembre 02:18 3.4°C 86% 6.3 km/h SE 1007.3 hPa 0 mm
05 décembre 02:17 3.5°C 86% 5.8 km/h SE 1007.3 hPa 0 mm
05 décembre 02:16 3.5°C 85% 7.4 km/h SE 1007.2 hPa 0 mm
05 décembre 02:15 3.5°C 86% 6.3 km/h SE 1007.2 hPa 0 mm
05 décembre 02:14 3.5°C 86% 7.9 km/h SE 1007.3 hPa 0 mm
05 décembre 02:13 3.5°C 86% 8.4 km/h ESE 1007.3 hPa 0 mm
05 décembre 02:12 3.5°C 86% 7.9 km/h SE 1007.2 hPa 0 mm
05 décembre 02:11 3.5°C 86% 7.9 km/h ESE 1007.3 hPa 0 mm
05 décembre 02:10 3.5°C 86% 5.8 km/h SE 1007.3 hPa 0 mm
05 décembre 02:09 3.5°C 86% 7.4 km/h SE 1007.3 hPa 0 mm
05 décembre 02:08 3.5°C 86% 8.4 km/h ESE 1007.3 hPa 0 mm
05 décembre 02:07 3.6°C 86% 7.9 km/h ESE 1007.4 hPa 0 mm
05 décembre 02:06 3.5°C 86% 8.4 km/h ESE 1007.4 hPa 0 mm
05 décembre 02:05 3.5°C 86% 10.6 km/h SE 1007.4 hPa 0 mm
05 décembre 02:04 3.5°C 87% 10.0 km/h SSE 1007.4 hPa 0 mm
05 décembre 02:03 3.5°C 86% 12.7 km/h ESE 1007.5 hPa 0 mm
05 décembre 02:02 3.5°C 87% 9.0 km/h S 1007.5 hPa 0 mm
05 décembre 02:01 3.4°C 87% 10.6 km/h SSE 1007.5 hPa 0 mm
05 décembre 02:00 3.4°C 87% 10.0 km/h SSE 1007.5 hPa 0 mm
05 décembre 01:59 3.4°C 87% 10.0 km/h SSE 1007.6 hPa 0 mm
05 décembre 01:58 3.4°C 87% 6.3 km/h SE 1007.6 hPa 0 mm
05 décembre 01:57 3.4°C 87% 7.9 km/h SE 1007.7 hPa 0 mm
05 décembre 01:56 3.5°C 87% 5.8 km/h SSE 1007.7 hPa 0 mm
05 décembre 01:55 3.5°C 87% 5.3 km/h SSE 1007.7 hPa 0 mm
05 décembre 01:54 3.6°C 87% 5.3 km/h SE 1007.7 hPa 0 mm
05 décembre 01:53 3.7°C 87% 7.9 km/h S 1007.7 hPa 0 mm
05 décembre 01:52 3.6°C 87% 9.0 km/h SSE 1007.7 hPa 0 mm
05 décembre 01:51 3.6°C 87% 9.0 km/h SE 1007.7 hPa 0 mm
05 décembre 01:50 3.6°C 87% 9.0 km/h SE 1007.8 hPa 0 mm
05 décembre 01:49 3.6°C 87% 8.4 km/h ESE 1007.8 hPa 0 mm
05 décembre 01:48 3.6°C 88% 7.4 km/h SSE 1007.8 hPa 0 mm
05 décembre 01:47 3.5°C 88% 8.4 km/h SSE 1007.8 hPa 0 mm
05 décembre 01:46 3.5°C 88% 7.4 km/h SSE 1007.8 hPa 0 mm
05 décembre 01:45 3.4°C 88% 10.0 km/h SE 1007.8 hPa 0 mm
05 décembre 01:44 3.3°C 88% 9.0 km/h SE 1007.8 hPa 0 mm
05 décembre 01:43 3.4°C 88% 6.3 km/h SSE 1007.9 hPa 0 mm
05 décembre 01:42 3.4°C 88% 8.4 km/h SSE 1007.8 hPa 0 mm
05 décembre 01:41 3.3°C 89% 6.3 km/h SE 1007.9 hPa 0 mm
05 décembre 01:40 3.2°C 89% 6.9 km/h SE 1007.9 hPa 0 mm
05 décembre 01:39 3.3°C 89% 6.3 km/h S 1008.0 hPa 0 mm
05 décembre 01:38 3.3°C 89% 6.9 km/h S 1008.0 hPa 0 mm
05 décembre 01:37 3.3°C 89% 7.4 km/h SE 1008.0 hPa 0 mm
05 décembre 01:36 3.2°C 89% 5.8 km/h SSO 1008.0 hPa 0 mm
05 décembre 01:35 3.3°C 89% 7.9 km/h S 1008.0 hPa 0 mm
05 décembre 01:34 3.3°C 89% 6.9 km/h SSE 1008.0 hPa 0 mm
05 décembre 01:33 3.4°C 89% 6.3 km/h SSE 1008.1 hPa 0 mm
05 décembre 01:32 3.3°C 89% 5.3 km/h SSE 1008.1 hPa 0 mm
05 décembre 01:31 3.3°C 89% 5.3 km/h ESE 1008.1 hPa 0 mm
05 décembre 01:30 3.4°C 89% 5.8 km/h E 1008.1 hPa 0 mm
05 décembre 01:29 3.3°C 89% 7.9 km/h SE 1008.1 hPa 0 mm
05 décembre 01:28 3.3°C 89% 8.4 km/h SSE 1008.1 hPa 0 mm
05 décembre 01:27 3.2°C 89% 9.5 km/h S 1008.2 hPa 0 mm
05 décembre 01:26 3.1°C 90% 7.9 km/h S 1008.2 hPa 0 mm
05 décembre 01:25 3.1°C 90% 9.0 km/h SSE 1008.2 hPa 0 mm
05 décembre 01:24 3.1°C 90% 7.4 km/h SE 1008.2 hPa 0 mm
05 décembre 01:23 3.0°C 91% 7.9 km/h SSE 1008.2 hPa 0 mm
05 décembre 01:22 2.7°C 91% 8.4 km/h SSE 1008.2 hPa 0 mm
05 décembre 01:21 2.6°C 92% 6.3 km/h SE 1008.2 hPa 0 mm
05 décembre 01:20 2.6°C 92% 7.9 km/h S 1008.2 hPa 0 mm
05 décembre 01:19 2.2°C 92% 7.9 km/h S 1008.2 hPa 0 mm
05 décembre 01:18 2.0°C 92% 7.9 km/h SE 1008.3 hPa 0 mm
05 décembre 01:17 2.1°C 92% 6.9 km/h S 1008.3 hPa 0 mm
05 décembre 01:16 2.0°C 92% 7.4 km/h S 1008.3 hPa 0 mm
05 décembre 01:15 2.0°C 92% 4.8 km/h S 1008.3 hPa 0 mm
05 décembre 01:14 2.1°C 92% 4.8 km/h SE 1008.3 hPa 0 mm
05 décembre 01:13 2.1°C 93% 5.8 km/h SSE 1008.3 hPa 0 mm
05 décembre 01:12 2.1°C 93% 5.3 km/h ESE 1008.3 hPa 0 mm
05 décembre 01:11 2.0°C 93% 5.8 km/h SE 1008.3 hPa 0 mm
05 décembre 01:10 2.0°C 93% 5.8 km/h ESE 1008.4 hPa 0 mm
05 décembre 01:09 2.0°C 93% 3.2 km/h SSE 1008.4 hPa 0 mm
05 décembre 01:08 2.1°C 93% 3.7 km/h SSE 1008.4 hPa 0 mm
05 décembre 01:07 2.0°C 93% 3.7 km/h SE 1008.4 hPa 0 mm
05 décembre 01:06 2.0°C 93% 3.2 km/h SE 1008.5 hPa 0 mm
05 décembre 01:05 2.0°C 92% 3.7 km/h ESE 1008.5 hPa 0 mm
05 décembre 01:04 2.0°C 92% 4.2 km/h SE 1008.5 hPa 0 mm
05 décembre 01:03 2.0°C 92% 4.8 km/h SE 1008.5 hPa 0 mm
05 décembre 01:02 2.1°C 92% 4.2 km/h E 1008.6 hPa 0 mm
05 décembre 01:01 2.2°C 92% 4.2 km/h ESE 1008.6 hPa 0 mm
05 décembre 01:00 2.2°C 92% 3.7 km/h SE 1008.6 hPa 0 mm
05 décembre 00:59 2.2°C 92% 3.2 km/h SE 1008.6 hPa 0 mm
05 décembre 00:58 2.3°C 93% 1.6 km/h E 1008.6 hPa 0 mm
05 décembre 00:57 2.4°C 93% 1.6 km/h ESE 1008.6 hPa 0 mm
05 décembre 00:56 2.4°C 93% 2.1 km/h SE 1008.7 hPa 0 mm
05 décembre 00:55 2.4°C 93% 2.1 km/h E 1008.6 hPa 0 mm
05 décembre 00:54 2.4°C 93% 2.1 km/h SE 1008.7 hPa 0 mm
05 décembre 00:53 2.3°C 93% 1.6 km/h ESE 1008.8 hPa 0 mm
05 décembre 00:52 2.2°C 93% 1.1 km/h SE 1008.8 hPa 0 mm
05 décembre 00:51 2.1°C 93% 1.1 km/h SE 1008.8 hPa 0 mm
05 décembre 00:50 2.1°C 93% 1.6 km/h SE 1008.8 hPa 0 mm
05 décembre 00:49 2.2°C 93% 2.1 km/h E 1008.8 hPa 0 mm
05 décembre 00:48 2.2°C 93% 1.6 km/h SE 1008.8 hPa 0 mm
05 décembre 00:47 2.2°C 93% 1.1 km/h SE 1008.8 hPa 0 mm
05 décembre 00:46 2.2°C 93% 1.1 km/h SSE 1008.8 hPa 0 mm
05 décembre 00:45 2.1°C 93% 2.6 km/h E 1008.9 hPa 0 mm
05 décembre 00:44 2.1°C 93% 3.2 km/h SE 1008.9 hPa 0 mm
05 décembre 00:43 2.2°C 93% 4.2 km/h SE 1008.9 hPa 0 mm
05 décembre 00:42 2.3°C 92% 4.8 km/h SSO 1009.0 hPa 0 mm
05 décembre 00:41 2.4°C 92% 4.8 km/h S 1009.0 hPa 0 mm
05 décembre 00:40 2.4°C 92% 3.2 km/h S 1009.0 hPa 0 mm
05 décembre 00:39 2.5°C 92% 2.6 km/h S 1009.0 hPa 0 mm
05 décembre 00:38 2.4°C 92% 2.6 km/h ESE 1009.0 hPa 0 mm
05 décembre 00:37 2.5°C 92% 3.7 km/h SE 1009.0 hPa 0 mm
05 décembre 00:36 2.6°C 92% 3.7 km/h SSE 1009.1 hPa 0 mm
05 décembre 00:35 2.6°C 92% 5.3 km/h SSO 1009.2 hPa 0 mm
05 décembre 00:34 2.7°C 92% 4.8 km/h S 1009.2 hPa 0 mm
05 décembre 00:33 2.7°C 91% 4.8 km/h SO 1009.2 hPa 0 mm
05 décembre 00:32 2.9°C 91% 4.2 km/h SO 1009.2 hPa 0 mm
05 décembre 00:31 3.0°C 91% 4.2 km/h SSO 1009.2 hPa 0 mm
05 décembre 00:30 3.1°C 91% 3.2 km/h SSO 1009.2 hPa 0 mm
05 décembre 00:29 3.1°C 91% 4.2 km/h S 1009.2 hPa 0 mm
05 décembre 00:29 3.1°C 91% 3.7 km/h S 1009.2 hPa 0 mm
05 décembre 00:28 3.2°C 90% 3.7 km/h SSO 1009.2 hPa 0 mm
05 décembre 00:27 3.3°C 90% 3.2 km/h SSO 1009.2 hPa 0 mm
05 décembre 00:26 3.3°C 90% 3.7 km/h SSO 1009.2 hPa 0 mm
05 décembre 00:25 3.3°C 90% 4.2 km/h SE 1009.3 hPa 0 mm
05 décembre 00:24 3.4°C 90% 4.8 km/h SE 1009.3 hPa 0 mm
05 décembre 00:23 3.4°C 90% 3.7 km/h SE 1009.3 hPa 0 mm
05 décembre 00:22 3.4°C 90% 2.6 km/h SSE 1009.3 hPa 0 mm
05 décembre 00:21 3.4°C 90% 1.6 km/h E 1009.4 hPa 0 mm
05 décembre 00:20 3.4°C 90% 2.1 km/h ESE 1009.4 hPa 0 mm
05 décembre 00:19 3.4°C 90% 1.6 km/h SE 1009.4 hPa 0 mm
05 décembre 00:18 3.4°C 90% 1.1 km/h ESE 1009.4 hPa 0 mm
05 décembre 00:17 3.3°C 90% 1.6 km/h ESE 1009.5 hPa 0 mm
05 décembre 00:16 3.4°C 90% 1.1 km/h SE 1009.5 hPa 0 mm
05 décembre 00:15 3.4°C 90% 1.1 km/h SE 1009.4 hPa 0 mm
05 décembre 00:14 3.5°C 90% 2.1 km/h ESE 1009.4 hPa 0 mm
05 décembre 00:13 3.4°C 90% 2.6 km/h ESE 1009.5 hPa 0 mm
05 décembre 00:12 3.4°C 90% 4.2 km/h SE 1009.5 hPa 0 mm
05 décembre 00:11 3.4°C 90% 3.2 km/h ESE 1009.5 hPa 0 mm
05 décembre 00:10 3.4°C 89% 2.6 km/h SE 1009.5 hPa 0 mm
05 décembre 00:09 3.5°C 89% 2.1 km/h SE 1009.4 hPa 0 mm
05 décembre 00:08 3.4°C 89% 2.1 km/h ESE 1009.5 hPa 0 mm
05 décembre 00:07 3.4°C 89% 3.2 km/h ESE 1009.5 hPa 0 mm
05 décembre 00:06 3.5°C 89% 3.2 km/h ESE 1009.5 hPa 0 mm
05 décembre 00:05 3.5°C 89% 3.2 km/h ESE 1009.5 hPa 0 mm
05 décembre 00:04 3.5°C 89% 2.1 km/h ESE 1009.5 hPa 0 mm
05 décembre 00:03 3.5°C 89% 2.6 km/h ESE 1009.5 hPa 0 mm
05 décembre 00:02 3.4°C 89% 0.0 km/h ESE 1009.5 hPa 0 mm
05 décembre 00:01 3.5°C 89% 0.0 km/h ESE 1009.5 hPa 0 mm
05 décembre 00:00 3.4°C 89% 0.5 km/h ENE 1009.5 hPa 0 mm
04 décembre 23:59 3.5°C 89% 2.1 km/h NE 1009.5 hPa 0 mm
04 décembre 23:58 3.5°C 90% 2.6 km/h NE 1009.5 hPa 0 mm
04 décembre 23:57 3.4°C 90% 3.2 km/h NNE 1009.5 hPa 0 mm
04 décembre 23:56 3.4°C 90% 0.5 km/h SE 1009.5 hPa 0 mm
04 décembre 23:55 3.4°C 90% 1.1 km/h ESE 1009.5 hPa 0 mm
04 décembre 23:54 3.3°C 90% 1.1 km/h ENE 1009.5 hPa 0 mm
04 décembre 23:53 3.3°C 90% 0.0 km/h N 1009.4 hPa 0 mm
04 décembre 23:52 3.2°C 90% 1.6 km/h E 1009.5 hPa 0 mm
04 décembre 23:51 3.3°C 90% 2.1 km/h SO 1009.5 hPa 0 mm
04 décembre 23:50 3.3°C 90% 3.7 km/h O 1009.5 hPa 0 mm
04 décembre 23:49 3.2°C 90% 3.7 km/h OSO 1009.4 hPa 0 mm
04 décembre 23:48 3.2°C 91% 3.2 km/h SSO 1009.4 hPa 0 mm
04 décembre 23:47 3.1°C 91% 3.7 km/h SO 1009.4 hPa 0 mm
04 décembre 23:46 3.1°C 91% 4.8 km/h SO 1009.4 hPa 0 mm
04 décembre 23:45 3.0°C 91% 4.2 km/h O 1009.4 hPa 0 mm
04 décembre 23:44 2.9°C 92% 5.8 km/h SO 1009.5 hPa 0 mm
04 décembre 23:43 2.8°C 92% 6.9 km/h SSO 1009.5 hPa 0 mm
04 décembre 23:42 2.7°C 92% 5.3 km/h S 1009.5 hPa 0 mm
04 décembre 23:41 2.7°C 92% 6.3 km/h SO 1009.6 hPa 0 mm
04 décembre 23:40 2.7°C 92% 6.3 km/h S 1009.6 hPa 0 mm
04 décembre 23:39 2.7°C 92% 7.9 km/h S 1009.6 hPa 0 mm
04 décembre 23:38 2.6°C 92% 7.4 km/h S 1009.6 hPa 0 mm
04 décembre 23:37 2.6°C 91% 6.9 km/h SSO 1009.6 hPa 0 mm
04 décembre 23:36 2.6°C 91% 5.8 km/h SSO 1009.6 hPa 0 mm
04 décembre 23:35 2.6°C 91% 4.2 km/h SSO 1009.6 hPa 0 mm
04 décembre 23:34 2.6°C 91% 5.3 km/h SSE 1009.5 hPa 0 mm
04 décembre 23:33 2.6°C 91% 5.3 km/h SE 1009.5 hPa 0 mm
04 décembre 23:32 2.7°C 91% 5.3 km/h SSO 1009.5 hPa 0 mm
04 décembre 23:31 2.7°C 91% 4.2 km/h S 1009.5 hPa 0 mm
04 décembre 23:30 2.8°C 90% 4.2 km/h S 1009.5 hPa 0 mm
04 décembre 23:29 2.9°C 90% 3.2 km/h SSO 1009.5 hPa 0 mm
04 décembre 23:28 3.0°C 90% 3.2 km/h S 1009.5 hPa 0 mm
04 décembre 23:27 3.0°C 90% 2.6 km/h S 1009.5 hPa 0 mm
04 décembre 23:26 3.1°C 90% 2.1 km/h ESE 1009.5 hPa 0 mm
04 décembre 23:25 3.1°C 90% 2.6 km/h SE 1009.5 hPa 0 mm
04 décembre 23:24 3.1°C 90% 2.6 km/h SE 1009.5 hPa 0 mm
04 décembre 23:23 3.1°C 89% 2.1 km/h SE 1009.5 hPa 0 mm
04 décembre 23:22 3.3°C 89% 2.6 km/h SE 1009.5 hPa 0 mm
04 décembre 23:21 3.3°C 89% 2.1 km/h SE 1009.5 hPa 0 mm
04 décembre 23:20 3.3°C 89% 1.6 km/h ESE 1009.5 hPa 0 mm
04 décembre 23:19 3.3°C 89% 2.1 km/h E 1009.5 hPa 0 mm
04 décembre 23:18 3.3°C 89% 2.1 km/h ESE 1009.5 hPa 0 mm
04 décembre 23:17 3.3°C 89% 2.1 km/h ESE 1009.5 hPa 0 mm
04 décembre 23:16 3.3°C 89% 2.1 km/h ESE 1009.5 hPa 0 mm
04 décembre 23:15 3.3°C 89% 2.6 km/h ESE 1009.6 hPa 0 mm
04 décembre 23:14 3.4°C 89% 3.2 km/h E 1009.6 hPa 0 mm
04 décembre 23:13 3.4°C 89% 2.6 km/h SE 1009.6 hPa 0 mm
04 décembre 23:12 3.3°C 89% 2.1 km/h ESE 1009.6 hPa 0 mm
04 décembre 23:11 3.3°C 89% 3.2 km/h SSE 1009.6 hPa 0 mm
04 décembre 23:10 3.3°C 89% 2.6 km/h ESE 1009.6 hPa 0 mm
04 décembre 23:09 3.4°C 89% 3.2 km/h ESE 1009.6 hPa 0 mm
04 décembre 23:08 3.4°C 89% 4.2 km/h SE 1009.6 hPa 0 mm
04 décembre 23:07 3.4°C 89% 4.2 km/h ESE 1009.6 hPa 0 mm
04 décembre 23:06 3.4°C 88% 3.2 km/h ESE 1009.6 hPa 0 mm
04 décembre 23:05 3.4°C 88% 3.2 km/h E 1009.6 hPa 0 mm
04 décembre 23:04 3.5°C 88% 1.1 km/h E 1009.6 hPa 0 mm
04 décembre 23:03 3.5°C 88% 1.6 km/h ESE 1009.6 hPa 0 mm
04 décembre 23:02 3.4°C 88% 1.6 km/h E 1009.6 hPa 0 mm
04 décembre 23:01 3.4°C 88% 2.1 km/h ESE 1009.6 hPa 0 mm
04 décembre 23:00 3.4°C 88% 2.1 km/h ESE 1009.7 hPa 0 mm
04 décembre 22:59 3.4°C 88% 1.6 km/h ESE 1009.7 hPa 0 mm
04 décembre 22:58 3.4°C 88% 2.1 km/h ESE 1009.7 hPa 0 mm
04 décembre 22:57 3.3°C 88% 2.6 km/h ESE 1009.7 hPa 0 mm
04 décembre 22:56 3.3°C 88% 2.6 km/h SE 1009.7 hPa 0 mm
04 décembre 22:55 3.3°C 88% 2.6 km/h SE 1009.8 hPa 0 mm
04 décembre 22:54 3.4°C 87% 2.6 km/h ESE 1009.7 hPa 0 mm
04 décembre 22:53 3.5°C 87% 2.1 km/h E 1009.8 hPa 0 mm
04 décembre 22:52 3.6°C 87% 1.6 km/h ESE 1009.8 hPa 0 mm
04 décembre 22:51 3.7°C 87% 1.1 km/h SE 1009.7 hPa 0 mm
04 décembre 22:50 3.7°C 87% 1.6 km/h ESE 1009.7 hPa 0 mm
04 décembre 22:49 3.7°C 87% 2.1 km/h ESE 1009.7 hPa 0 mm
04 décembre 22:48 3.7°C 87% 0.5 km/h E 1009.7 hPa 0 mm
04 décembre 22:47 3.7°C 87% 1.1 km/h SE 1009.7 hPa 0 mm
04 décembre 22:46 3.6°C 87% 1.6 km/h E 1009.6 hPa 0 mm
04 décembre 22:45 3.6°C 87% 1.6 km/h ENE 1009.6 hPa 0 mm
04 décembre 22:44 3.6°C 87% 1.6 km/h E 1009.6 hPa 0 mm
04 décembre 22:43 3.5°C 87% 2.6 km/h NE 1009.6 hPa 0 mm
04 décembre 22:42 3.4°C 87% 3.2 km/h ESE 1009.6 hPa 0 mm
04 décembre 22:41 3.4°C 87% 1.6 km/h NE 1009.5 hPa 0 mm
04 décembre 22:40 3.4°C 87% 3.7 km/h E 1009.5 hPa 0 mm
04 décembre 22:39 3.4°C 87% 3.2 km/h ESE 1009.5 hPa 0 mm
04 décembre 22:38 3.4°C 87% 5.8 km/h E 1009.4 hPa 0 mm
04 décembre 22:37 3.4°C 87% 6.9 km/h ESE 1009.5 hPa 0 mm
04 décembre 22:36 3.5°C 87% 6.9 km/h E 1009.4 hPa 0 mm
04 décembre 22:35 3.5°C 87% 7.9 km/h SO 1009.5 hPa 0 mm
04 décembre 22:34 3.5°C 87% 8.4 km/h S 1009.5 hPa 0 mm
04 décembre 22:33 3.5°C 87% 9.0 km/h OSO 1009.5 hPa 0 mm
04 décembre 22:32 3.6°C 87% 10.0 km/h OSO 1009.5 hPa 0 mm
04 décembre 22:31 3.6°C 87% 9.5 km/h S 1009.5 hPa 0 mm
04 décembre 22:30 3.6°C 87% 9.5 km/h SSO 1009.5 hPa 0 mm
04 décembre 22:29 3.6°C 87% 10.6 km/h SSE 1009.4 hPa 0 mm
04 décembre 22:28 3.7°C 87% 7.9 km/h SE 1009.5 hPa 0 mm
04 décembre 22:27 3.7°C 86% 8.4 km/h SSO 1009.5 hPa 0 mm
04 décembre 22:26 3.8°C 86% 7.9 km/h SSE 1009.5 hPa 0 mm
04 décembre 22:25 3.9°C 86% 11.6 km/h SSO 1009.5 hPa 0 mm
04 décembre 22:24 3.9°C 86% 9.5 km/h SSE 1009.5 hPa 0 mm
04 décembre 22:23 3.9°C 86% 13.7 km/h OSO 1009.5 hPa 0 mm
04 décembre 22:22 3.8°C 86% 12.7 km/h SO 1009.5 hPa 0 mm
04 décembre 22:21 3.9°C 86% 8.4 km/h OSO 1009.5 hPa 0 mm
04 décembre 22:20 3.9°C 86% 11.1 km/h OSO 1009.5 hPa 0 mm
04 décembre 22:19 4.0°C 86% 14.2 km/h O 1009.5 hPa 0 mm
04 décembre 22:18 4.0°C 86% 10.6 km/h OSO 1009.5 hPa 0 mm
04 décembre 22:17 4.1°C 86% 10.0 km/h O 1009.5 hPa 0 mm
04 décembre 22:16 4.0°C 86% 10.6 km/h S 1009.5 hPa 0 mm
04 décembre 22:15 4.0°C 86% 14.2 km/h O 1009.5 hPa 0 mm
04 décembre 22:14 4.1°C 86% 16.4 km/h SSO 1009.6 hPa 0 mm
04 décembre 22:13 4.0°C 86% 11.1 km/h OSO 1009.6 hPa 0 mm
04 décembre 22:12 4.0°C 86% 17.4 km/h SO 1009.5 hPa 0 mm
04 décembre 22:11 4.0°C 86% 17.4 km/h SSO 1009.6 hPa 0 mm
04 décembre 22:10 4.0°C 86% 13.2 km/h ONO 1009.6 hPa 0 mm
04 décembre 22:09 4.1°C 86% 12.7 km/h O 1009.6 hPa 0 mm
04 décembre 22:08 4.1°C 86% 15.3 km/h ONO 1009.6 hPa 0 mm
04 décembre 22:07 4.0°C 86% 14.8 km/h OSO 1009.6 hPa 0 mm
04 décembre 22:06 4.1°C 86% 14.8 km/h SO 1009.6 hPa 0 mm
04 décembre 22:05 4.1°C 86% 13.7 km/h OSO 1009.6 hPa 0 mm
04 décembre 22:04 4.0°C 86% 17.9 km/h O 1009.5 hPa 0 mm
04 décembre 22:03 4.1°C 86% 14.2 km/h O 1009.5 hPa 0 mm
04 décembre 22:02 4.2°C 86% 14.8 km/h OSO 1009.5 hPa 0 mm
04 décembre 22:01 4.3°C 86% 14.2 km/h SO 1009.5 hPa 0 mm
04 décembre 22:00 4.2°C 86% 14.2 km/h SO 1009.5 hPa 0 mm
04 décembre 21:59 4.2°C 86% 17.4 km/h O 1009.5 hPa 0 mm
04 décembre 21:58 4.2°C 86% 14.8 km/h O 1009.5 hPa 0 mm
04 décembre 21:57 4.2°C 86% 14.2 km/h O 1009.6 hPa 0 mm
04 décembre 21:56 4.2°C 86% 15.8 km/h OSO 1009.6 hPa 0 mm
04 décembre 21:55 4.2°C 87% 19.0 km/h OSO 1009.6 hPa 0 mm
04 décembre 21:54 4.1°C 87% 16.4 km/h O 1009.6 hPa 0 mm
04 décembre 21:53 4.2°C 87% 11.6 km/h OSO 1009.7 hPa 0 mm
04 décembre 21:52 4.2°C 87% 12.7 km/h SO 1009.7 hPa 0 mm
04 décembre 21:51 4.2°C 87% 15.8 km/h OSO 1009.7 hPa 0 mm
04 décembre 21:50 4.3°C 87% 15.3 km/h S 1009.8 hPa 0 mm
04 décembre 21:49 4.3°C 87% 14.8 km/h O 1009.7 hPa 0 mm
04 décembre 21:48 4.3°C 87% 14.2 km/h OSO 1009.7 hPa 0 mm
04 décembre 21:47 4.3°C 87% 15.3 km/h SO 1009.6 hPa 0 mm
04 décembre 21:46 4.3°C 87% 11.1 km/h O 1009.6 hPa 0 mm
04 décembre 21:45 4.3°C 87% 13.2 km/h SO 1009.5 hPa 0 mm
04 décembre 21:44 4.3°C 87% 14.2 km/h OSO 1009.5 hPa 0 mm
04 décembre 21:43 4.3°C 87% 11.1 km/h O 1009.5 hPa 0 mm
04 décembre 21:42 4.3°C 87% 10.0 km/h SO 1009.5 hPa 0 mm
04 décembre 21:41 4.4°C 87% 12.1 km/h O 1009.5 hPa 0 mm
04 décembre 21:40 4.4°C 87% 12.1 km/h O 1009.5 hPa 0 mm
04 décembre 21:39 4.4°C 87% 13.7 km/h SSO 1009.5 hPa 0 mm
04 décembre 21:38 4.4°C 87% 13.2 km/h O 1009.5 hPa 0 mm
04 décembre 21:37 4.4°C 87% 14.2 km/h OSO 1009.4 hPa 0 mm
04 décembre 21:36 4.4°C 87% 15.8 km/h OSO 1009.4 hPa 0 mm
04 décembre 21:35 4.4°C 87% 14.2 km/h ONO 1009.4 hPa 0 mm
04 décembre 21:34 4.4°C 87% 12.1 km/h O 1009.4 hPa 0 mm
04 décembre 21:33 4.4°C 87% 12.7 km/h OSO 1009.4 hPa 0 mm
04 décembre 21:32 4.5°C 87% 10.6 km/h SSO 1009.4 hPa 0 mm
04 décembre 21:31 4.5°C 87% 12.1 km/h SO 1009.4 hPa 0 mm
04 décembre 21:30 4.7°C 87% 13.7 km/h O 1009.4 hPa 0 mm
04 décembre 21:29 4.6°C 87% 17.9 km/h OSO 1009.4 hPa 0 mm
04 décembre 21:28 4.7°C 87% 16.9 km/h OSO 1009.4 hPa 0 mm
04 décembre 21:27 4.7°C 87% 13.7 km/h SSO 1009.4 hPa 0 mm
04 décembre 21:26 4.7°C 87% 12.1 km/h SSO 1009.4 hPa 0 mm
04 décembre 21:25 4.8°C 87% 16.4 km/h O 1009.4 hPa 0 mm
04 décembre 21:24 4.8°C 87% 16.9 km/h OSO 1009.4 hPa 0 mm
04 décembre 21:23 4.7°C 87% 14.2 km/h OSO 1009.4 hPa 0 mm
04 décembre 21:22 4.7°C 87% 15.8 km/h SSE 1009.5 hPa 0 mm
04 décembre 21:21 4.7°C 87% 19.0 km/h OSO 1009.4 hPa 0 mm
04 décembre 21:20 4.7°C 87% 14.2 km/h SO 1009.4 hPa 0 mm
04 décembre 21:19 4.8°C 87% 12.1 km/h OSO 1009.4 hPa 0 mm
04 décembre 21:18 4.8°C 87% 12.1 km/h SO 1009.4 hPa 0 mm
04 décembre 21:17 4.9°C 87% 12.1 km/h OSO 1009.4 hPa 0 mm
04 décembre 21:16 4.9°C 86% 10.6 km/h ONO 1009.4 hPa 0 mm
04 décembre 21:15 5.0°C 86% 11.1 km/h NO 1009.5 hPa 0 mm
04 décembre 21:14 4.9°C 87% 12.7 km/h O 1009.5 hPa 0 mm
04 décembre 21:13 4.9°C 87% 12.1 km/h ONO 1009.5 hPa 0 mm
04 décembre 21:12 4.9°C 87% 10.0 km/h O 1009.5 hPa 0 mm
04 décembre 21:11 5.0°C 87% 14.2 km/h OSO 1009.5 hPa 0 mm
04 décembre 21:10 4.9°C 87% 11.6 km/h SO 1009.4 hPa 0 mm
04 décembre 21:09 5.0°C 87% 10.0 km/h OSO 1009.4 hPa 0 mm
04 décembre 21:08 5.0°C 86% 9.5 km/h O 1009.3 hPa 0 mm
04 décembre 21:07 5.0°C 86% 11.1 km/h SO 1009.3 hPa 0 mm
04 décembre 21:06 5.0°C 87% 11.1 km/h SO 1009.3 hPa 0 mm
04 décembre 21:05 5.0°C 87% 11.6 km/h OSO 1009.3 hPa 0 mm
04 décembre 21:04 5.1°C 86% 9.5 km/h OSO 1009.3 hPa 0 mm
04 décembre 21:03 5.1°C 86% 12.1 km/h SSO 1009.2 hPa 0 mm
04 décembre 21:02 5.2°C 86% 15.8 km/h SO 1009.1 hPa 0 mm
04 décembre 21:01 5.2°C 86% 14.2 km/h ONO 1009.1 hPa 0 mm
04 décembre 21:00 5.2°C 86% 16.9 km/h O 1009.1 hPa 0 mm
04 décembre 20:59 5.3°C 86% 16.9 km/h OSO 1009.1 hPa 0 mm
04 décembre 20:58 5.4°C 86% 17.4 km/h SSO 1009.0 hPa 0 mm
04 décembre 20:57 5.3°C 86% 20.1 km/h OSO 1009.1 hPa 0 mm
04 décembre 20:56 5.3°C 87% 19.5 km/h OSO 1009.1 hPa 0 mm
04 décembre 20:55 5.3°C 87% 14.2 km/h O 1009.0 hPa 0 mm
04 décembre 20:54 5.2°C 87% 16.4 km/h OSO 1008.9 hPa 0 mm
04 décembre 20:53 5.2°C 87% 14.8 km/h SSO 1009.0 hPa 0 mm
04 décembre 20:52 5.2°C 88% 9.0 km/h SSO 1009.0 hPa 0 mm
04 décembre 20:51 5.2°C 88% 5.8 km/h SO 1009.0 hPa 0 mm
04 décembre 20:50 5.2°C 88% 10.0 km/h O 1009.1 hPa 0 mm
04 décembre 20:49 5.2°C 89% 8.4 km/h SSO 1009.1 hPa 0 mm
04 décembre 20:48 5.2°C 89% 8.4 km/h SO 1009.1 hPa 0 mm
04 décembre 20:47 5.1°C 89% 6.3 km/h O 1009.1 hPa 0 mm
04 décembre 20:46 5.2°C 88% 4.2 km/h SSO 1009.1 hPa 0 mm
04 décembre 20:45 5.3°C 88% 5.8 km/h O 1009.1 hPa 0 mm
04 décembre 20:44 5.5°C 87% 6.3 km/h SO 1009.1 hPa 0 mm
04 décembre 20:43 5.5°C 87% 6.9 km/h OSO 1009.0 hPa 0 mm
04 décembre 20:42 5.5°C 87% 10.0 km/h SSE 1009.0 hPa 0 mm
04 décembre 20:41 5.5°C 88% 13.7 km/h ESE 1008.9 hPa 0 mm
04 décembre 20:40 5.4°C 88% 10.6 km/h OSO 1009.0 hPa 0 mm
04 décembre 20:39 5.3°C 88% 8.4 km/h SSO 1008.9 hPa 0 mm
04 décembre 20:38 5.4°C 88% 7.4 km/h SO 1008.8 hPa 0 mm
04 décembre 20:37 5.5°C 88% 3.7 km/h SSO 1008.8 hPa 0 mm
04 décembre 20:36 5.4°C 88% 6.3 km/h O 1008.7 hPa 0 mm
04 décembre 20:35 5.4°C 88% 7.9 km/h SO 1008.7 hPa 0 mm
04 décembre 20:34 5.4°C 89% 5.3 km/h ONO 1008.6 hPa 0 mm
04 décembre 20:33 5.4°C 88% 7.9 km/h OSO 1008.6 hPa 0 mm
04 décembre 20:32 5.5°C 88% 5.8 km/h E 1008.6 hPa 0 mm
04 décembre 20:31 5.5°C 88% 6.9 km/h ENE 1008.5 hPa 0 mm
04 décembre 20:30 5.5°C 88% 5.3 km/h NE 1008.5 hPa 0 mm
04 décembre 20:29 5.5°C 89% 5.8 km/h NNE 1008.5 hPa 0 mm
04 décembre 20:28 5.5°C 89% 7.4 km/h N 1008.5 hPa 0 mm
04 décembre 20:27 5.5°C 89% 5.8 km/h E 1008.5 hPa 0 mm
04 décembre 20:26 5.3°C 89% 8.4 km/h O 1008.4 hPa 0 mm
04 décembre 20:25 5.3°C 89% 6.9 km/h ENE 1008.4 hPa 0 mm
04 décembre 20:24 5.2°C 89% 7.4 km/h NE 1008.4 hPa 0 mm
04 décembre 20:23 5.1°C 90% 7.9 km/h ESE 1008.3 hPa 0 mm
04 décembre 20:22 5.0°C 90% 6.9 km/h SE 1008.3 hPa 0 mm
04 décembre 20:21 5.0°C 90% 4.2 km/h SO 1008.3 hPa 0 mm
04 décembre 20:20 5.0°C 90% 3.7 km/h SO 1008.3 hPa 0 mm
04 décembre 20:19 5.0°C 89% 2.6 km/h O 1008.2 hPa 0 mm
04 décembre 20:18 5.0°C 89% 2.6 km/h SO 1008.2 hPa 0 mm
04 décembre 20:17 5.0°C 89% 4.8 km/h SO 1008.2 hPa 0 mm
04 décembre 20:16 5.1°C 89% 3.2 km/h OSO 1008.1 hPa 0 mm
04 décembre 20:15 5.1°C 89% 4.2 km/h O 1008.1 hPa 0 mm
04 décembre 20:14 5.1°C 89% 4.8 km/h O 1008.0 hPa 0 mm
04 décembre 20:13 5.1°C 89% 4.2 km/h ONO 1008.0 hPa 0 mm
04 décembre 20:12 5.1°C 89% 4.2 km/h SO 1007.9 hPa 0 mm
04 décembre 20:11 5.1°C 89% 5.3 km/h O 1007.8 hPa 0 mm
04 décembre 20:10 5.1°C 89% 4.2 km/h SO 1007.8 hPa 0 mm
04 décembre 20:09 5.1°C 89% 4.8 km/h O 1007.8 hPa 0 mm
04 décembre 20:08 5.1°C 89% 4.8 km/h O 1007.7 hPa 0 mm
04 décembre 20:07 5.1°C 89% 4.8 km/h OSO 1007.8 hPa 0 mm
04 décembre 20:06 5.2°C 89% 4.2 km/h O 1007.8 hPa 0 mm
04 décembre 20:05 5.2°C 89% 5.8 km/h O 1007.8 hPa 0 mm
04 décembre 20:04 5.2°C 89% 5.8 km/h SO 1007.8 hPa 0 mm
04 décembre 20:03 5.2°C 89% 5.8 km/h OSO 1007.7 hPa 0 mm
04 décembre 20:02 5.2°C 89% 6.9 km/h SO 1007.7 hPa 0 mm
04 décembre 20:01 5.2°C 89% 6.3 km/h SSO 1007.7 hPa 0 mm
04 décembre 20:00 5.2°C 89% 6.3 km/h SSO 1007.7 hPa 0 mm
04 décembre 19:59 5.2°C 89% 7.4 km/h SSO 1007.7 hPa 0 mm
04 décembre 19:58 5.3°C 88% 5.3 km/h OSO 1007.7 hPa 0 mm
04 décembre 19:57 5.3°C 89% 7.9 km/h SO 1007.6 hPa 0 mm
04 décembre 19:56 5.3°C 88% 6.3 km/h OSO 1007.6 hPa 0 mm
04 décembre 19:55 5.3°C 89% 7.9 km/h SO 1007.6 hPa 0 mm
04 décembre 19:54 5.3°C 89% 8.4 km/h SO 1007.6 hPa 0 mm
04 décembre 19:53 5.3°C 89% 9.5 km/h OSO 1007.6 hPa 0 mm
04 décembre 19:52 5.4°C 88% 6.9 km/h SO 1007.6 hPa 0 mm
04 décembre 19:51 5.3°C 88% 10.0 km/h OSO 1007.6 hPa 0 mm
04 décembre 19:50 5.5°C 88% 9.0 km/h SSO 1007.6 hPa 0 mm
04 décembre 19:49 5.5°C 88% 9.5 km/h SO 1007.6 hPa 0 mm
04 décembre 19:48 5.5°C 88% 11.1 km/h SSO 1007.5 hPa 0 mm
04 décembre 19:47 5.5°C 88% 10.0 km/h SO 1007.5 hPa 0 mm
04 décembre 19:46 5.5°C 88% 9.5 km/h O 1007.5 hPa 0 mm
04 décembre 19:45 5.5°C 88% 9.5 km/h O 1007.5 hPa 0 mm
04 décembre 19:44 5.6°C 88% 11.1 km/h SO 1007.5 hPa 0 mm
04 décembre 19:43 5.7°C 88% 11.6 km/h SO 1007.5 hPa 0 mm
04 décembre 19:42 5.6°C 88% 12.7 km/h SSO 1007.5 hPa 0 mm
04 décembre 19:41 5.6°C 88% 14.2 km/h SSO 1007.4 hPa 0 mm
04 décembre 19:40 5.6°C 88% 10.0 km/h SO 1007.4 hPa 0 mm
04 décembre 19:39 5.7°C 88% 11.6 km/h OSO 1007.4 hPa 0 mm
04 décembre 19:38 5.7°C 87% 10.0 km/h O 1007.4 hPa 0 mm
04 décembre 19:37 5.8°C 87% 11.1 km/h SO 1007.4 hPa 0 mm
04 décembre 19:36 5.9°C 87% 10.0 km/h OSO 1007.4 hPa 0 mm
04 décembre 19:35 5.9°C 87% 15.8 km/h O 1007.4 hPa 0 mm
04 décembre 19:34 5.8°C 87% 19.0 km/h S 1007.4 hPa 0 mm
04 décembre 19:33 5.9°C 87% 13.2 km/h O 1007.4 hPa 0 mm
04 décembre 19:32 5.9°C 87% 14.8 km/h OSO 1007.4 hPa 0 mm
04 décembre 19:31 5.9°C 87% 15.3 km/h ONO 1007.4 hPa 0 mm
04 décembre 19:30 6.0°C 87% 14.2 km/h O 1007.4 hPa 0 mm
04 décembre 19:29 6.0°C 87% 16.4 km/h ONO 1007.4 hPa 0 mm
04 décembre 19:28 6.0°C 87% 17.9 km/h S 1007.4 hPa 0 mm
04 décembre 19:27 5.9°C 87% 15.8 km/h SO 1007.4 hPa 0 mm
04 décembre 19:26 5.9°C 87% 15.8 km/h O 1007.4 hPa 0 mm
04 décembre 19:25 5.9°C 88% 14.2 km/h ONO 1007.4 hPa 0 mm
04 décembre 19:24 5.8°C 88% 19.5 km/h OSO 1007.4 hPa 0 mm
04 décembre 19:23 5.7°C 88% 16.4 km/h O 1007.3 hPa 0.14 mm
04 décembre 19:22 5.7°C 88% 12.7 km/h SSO 1007.3 hPa 0 mm
04 décembre 19:21 5.7°C 88% 12.7 km/h O 1007.2 hPa 0 mm
04 décembre 19:20 5.6°C 89% 13.2 km/h SSO 1007.2 hPa 0 mm
04 décembre 19:19 5.6°C 89% 13.2 km/h SO 1007.2 hPa 0 mm
04 décembre 19:18 5.7°C 89% 10.0 km/h OSO 1007.2 hPa 0 mm
04 décembre 19:17 5.7°C 89% 13.2 km/h OSO 1007.2 hPa 0 mm
04 décembre 19:16 5.6°C 89% 12.7 km/h S 1007.2 hPa 0 mm
04 décembre 19:15 5.6°C 89% 11.1 km/h OSO 1007.1 hPa 0 mm
04 décembre 19:14 5.6°C 89% 9.0 km/h SSO 1007.2 hPa 0 mm
04 décembre 19:13 5.6°C 89% 10.0 km/h OSO 1007.1 hPa 0 mm
04 décembre 19:12 5.7°C 89% 9.0 km/h OSO 1007.1 hPa 0 mm
04 décembre 19:11 5.7°C 89% 11.1 km/h OSO 1007.1 hPa 0 mm
04 décembre 19:10 5.8°C 88% 11.6 km/h SO 1007.0 hPa 0 mm
04 décembre 19:09 5.8°C 88% 12.7 km/h SO 1007.0 hPa 0 mm
04 décembre 19:08 5.8°C 88% 12.7 km/h SO 1007.0 hPa 0 mm
04 décembre 19:07 5.8°C 89% 14.2 km/h SSO 1007.0 hPa 0 mm
04 décembre 19:06 5.8°C 89% 12.7 km/h OSO 1007.0 hPa 0 mm
04 décembre 19:05 5.8°C 89% 12.1 km/h O 1007.0 hPa 0 mm
04 décembre 19:04 5.7°C 89% 13.2 km/h SSO 1006.9 hPa 0 mm
04 décembre 19:03 5.8°C 89% 15.8 km/h SO 1006.9 hPa 0 mm
04 décembre 19:02 5.7°C 90% 16.4 km/h SO 1006.9 hPa 0 mm
04 décembre 19:01 5.6°C 90% 12.7 km/h SSO 1006.9 hPa 0 mm
04 décembre 19:00 5.7°C 89% 10.6 km/h S 1006.8 hPa 0 mm
04 décembre 18:59 5.8°C 89% 11.1 km/h SSE 1006.8 hPa 0 mm
04 décembre 18:58 5.8°C 89% 14.2 km/h SO 1006.9 hPa 0 mm
04 décembre 18:57 5.8°C 89% 16.4 km/h SSO 1007.0 hPa 0 mm
04 décembre 18:56 5.8°C 89% 12.1 km/h SO 1007.0 hPa 0.14 mm
04 décembre 18:55 5.8°C 89% 15.8 km/h SO 1007.0 hPa 0 mm
04 décembre 18:54 5.8°C 89% 15.8 km/h SO 1007.0 hPa 0 mm
04 décembre 18:53 5.8°C 89% 17.9 km/h SSO 1007.0 hPa 0 mm
04 décembre 18:52 5.8°C 90% 16.9 km/h S 1007.0 hPa 0.27 mm
04 décembre 18:51 5.8°C 90% 15.8 km/h SO 1006.9 hPa 0 mm
04 décembre 18:50 5.7°C 90% 14.2 km/h SSO 1006.9 hPa 0 mm
04 décembre 18:49 5.7°C 90% 10.0 km/h SSE 1007.0 hPa 0.14 mm
04 décembre 18:48 5.8°C 90% 12.1 km/h SSO 1007.1 hPa 0 mm
04 décembre 18:47 5.7°C 90% 11.1 km/h SO 1007.1 hPa 0 mm
04 décembre 18:46 5.6°C 90% 17.4 km/h SO 1007.2 hPa 0 mm
04 décembre 18:45 5.7°C 90% 8.4 km/h OSO 1007.2 hPa 0.14 mm
04 décembre 18:44 5.6°C 91% 13.7 km/h OSO 1007.3 hPa 0 mm
04 décembre 18:43 5.6°C 91% 13.7 km/h SO 1007.3 hPa 0.14 mm
04 décembre 18:42 5.5°C 91% 12.1 km/h SO 1007.2 hPa 0 mm
04 décembre 18:41 5.5°C 91% 10.6 km/h OSO 1007.2 hPa 0.14 mm
04 décembre 18:40 5.6°C 91% 10.0 km/h OSO 1007.2 hPa 0 mm
04 décembre 18:39 5.5°C 91% 16.9 km/h O 1007.2 hPa 0.14 mm
04 décembre 18:38 5.4°C 91% 14.8 km/h SO 1007.2 hPa 0.14 mm
04 décembre 18:37 5.4°C 91% 14.8 km/h SSO 1007.3 hPa 0.14 mm
04 décembre 18:36 5.3°C 91% 17.4 km/h OSO 1007.3 hPa 0.14 mm
04 décembre 18:35 5.3°C 91% 16.4 km/h OSO 1007.3 hPa 0.14 mm
04 décembre 18:34 5.3°C 92% 17.4 km/h SSO 1007.3 hPa 0.14 mm
04 décembre 18:33 5.3°C 92% 19.5 km/h OSO 1007.4 hPa 0.14 mm
04 décembre 18:32 5.1°C 93% 22.7 km/h SO 1007.4 hPa 0.27 mm
04 décembre 18:31 5.0°C 92% 20.6 km/h O 1007.4 hPa 0.14 mm
04 décembre 18:30 5.0°C 92% 20.6 km/h OSO 1007.4 hPa 0.14 mm
04 décembre 18:29 5.0°C 92% 13.7 km/h OSO 1007.5 hPa 0.14 mm
04 décembre 18:28 5.1°C 92% 21.1 km/h ONO 1007.5 hPa 0.14 mm
04 décembre 18:27 5.1°C 92% 26.4 km/h SO 1007.5 hPa 0.27 mm
04 décembre 18:26 5.3°C 92% 27.4 km/h OSO 1007.5 hPa 0.27 mm
04 décembre 18:25 5.4°C 92% 23.8 km/h SO 1007.5 hPa 0.27 mm
04 décembre 18:24 5.6°C 92% 23.2 km/h OSO 1007.5 hPa 0.14 mm
04 décembre 18:23 5.7°C 91% 24.8 km/h SO 1007.5 hPa 0.27 mm
04 décembre 18:22 6.0°C 91% 28.5 km/h OSO 1007.5 hPa 0.27 mm
04 décembre 18:21 6.0°C 90% 27.4 km/h SSO 1007.4 hPa 0.27 mm
04 décembre 18:20 6.3°C 90% 28.5 km/h SSO 1007.4 hPa 0.41 mm
04 décembre 18:19 6.7°C 90% 37.5 km/h OSO 1007.4 hPa 0.54 mm
04 décembre 18:18 6.9°C 89% 30.1 km/h ONO 1007.3 hPa 0.27 mm
04 décembre 18:17 7.1°C 89% 24.8 km/h ONO 1007.1 hPa 0.27 mm
04 décembre 18:16 7.2°C 89% 32.7 km/h ONO 1007.0 hPa 0.14 mm
04 décembre 18:15 7.2°C 89% 22.7 km/h O 1006.9 hPa 0.41 mm
04 décembre 18:14 7.4°C 89% 26.9 km/h OSO 1006.8 hPa 0.27 mm
04 décembre 18:13 7.6°C 89% 25.9 km/h OSO 1006.8 hPa 0.27 mm
04 décembre 18:12 7.6°C 89% 17.9 km/h OSO 1006.7 hPa 0.14 mm
04 décembre 18:11 7.7°C 89% 19.0 km/h OSO 1006.6 hPa 0 mm
04 décembre 18:10 7.7°C 89% 19.5 km/h OSO 1006.5 hPa 0.14 mm
04 décembre 18:09 7.8°C 89% 19.0 km/h OSO 1006.5 hPa 0 mm
04 décembre 18:08 7.8°C 89% 14.2 km/h O 1006.4 hPa 0.14 mm
04 décembre 18:07 7.7°C 89% 14.2 km/h SSO 1006.3 hPa 0 mm
04 décembre 18:06 7.6°C 90% 14.2 km/h SO 1006.2 hPa 0 mm
04 décembre 18:05 7.5°C 90% 13.7 km/h SSO 1006.1 hPa 0.14 mm
04 décembre 18:04 7.5°C 90% 11.1 km/h OSO 1006.0 hPa 0 mm
04 décembre 18:03 7.5°C 90% 15.8 km/h SSO 1005.9 hPa 0 mm
04 décembre 18:02 7.6°C 90% 18.5 km/h SO 1006.0 hPa 0.14 mm
04 décembre 18:01 7.5°C 90% 15.3 km/h SO 1006.0 hPa 0 mm
04 décembre 18:00 7.5°C 90% 14.2 km/h SSO 1005.9 hPa 0 mm
04 décembre 17:59 7.5°C 90% 13.7 km/h SO 1005.9 hPa 0 mm
04 décembre 17:58 7.5°C 90% 11.6 km/h OSO 1005.8 hPa 0 mm
04 décembre 17:57 7.6°C 90% 11.6 km/h S 1005.7 hPa 0.14 mm
04 décembre 17:56 7.6°C 90% 13.7 km/h SSO 1005.5 hPa 0 mm
04 décembre 17:55 7.6°C 90% 14.8 km/h S 1005.4 hPa 0 mm
04 décembre 17:54 7.6°C 90% 12.1 km/h S 1005.4 hPa 0 mm
04 décembre 17:53 7.6°C 90% 12.1 km/h SO 1005.4 hPa 0 mm
04 décembre 17:52 7.7°C 89% 10.6 km/h S 1005.4 hPa 0 mm
04 décembre 17:51 7.8°C 89% 10.6 km/h S 1005.3 hPa 0 mm
04 décembre 17:50 7.8°C 89% 11.1 km/h SSE 1005.2 hPa 0 mm
04 décembre 17:49 7.8°C 89% 9.0 km/h SSO 1005.2 hPa 0 mm
04 décembre 17:48 7.8°C 89% 9.5 km/h S 1005.2 hPa 0 mm
04 décembre 17:47 7.8°C 89% 11.6 km/h SSO 1005.2 hPa 0 mm
04 décembre 17:46 7.7°C 90% 10.0 km/h SSE 1005.1 hPa 0 mm
04 décembre 17:45 7.8°C 89% 9.5 km/h S 1005.1 hPa 0 mm
04 décembre 17:44 7.7°C 90% 10.6 km/h SE 1005.1 hPa 0 mm
04 décembre 17:43 7.7°C 90% 10.6 km/h S 1005.0 hPa 0 mm
04 décembre 17:42 7.7°C 90% 9.0 km/h SSE 1005.0 hPa 0 mm
04 décembre 17:41 7.7°C 90% 9.5 km/h SSE 1005.0 hPa 0 mm
04 décembre 17:40 7.7°C 90% 11.1 km/h S 1005.0 hPa 0 mm
04 décembre 17:39 7.7°C 90% 11.1 km/h SSE 1005.0 hPa 0 mm
04 décembre 17:38 7.8°C 90% 10.6 km/h SSE 1005.0 hPa 0 mm
04 décembre 17:37 7.7°C 90% 12.1 km/h SSE 1005.0 hPa 0 mm
04 décembre 17:36 7.7°C 90% 11.1 km/h SE 1005.0 hPa 0 mm
04 décembre 17:35 7.7°C 90% 10.6 km/h SE 1005.1 hPa 0 mm
04 décembre 17:34 7.7°C 90% 9.5 km/h SE 1005.1 hPa 0 mm
04 décembre 17:33 7.7°C 90% 11.6 km/h SSE 1005.1 hPa 0 mm
04 décembre 17:32 7.7°C 90% 9.5 km/h SSE 1005.1 hPa 0 mm
04 décembre 17:31 7.7°C 90% 13.2 km/h SSE 1005.0 hPa 0 mm
04 décembre 17:30 7.6°C 90% 12.1 km/h SE 1005.1 hPa 0 mm
04 décembre 17:29 7.6°C 90% 11.1 km/h SSE 1005.1 hPa 0 mm
04 décembre 17:28 7.7°C 90% 10.6 km/h SE 1005.1 hPa 0 mm
04 décembre 17:27 7.6°C 90% 11.1 km/h SSE 1005.1 hPa 0 mm
04 décembre 17:26 7.6°C 90% 11.1 km/h S 1005.1 hPa 0 mm
04 décembre 17:25 7.6°C 91% 11.6 km/h SSE 1005.1 hPa 0 mm
04 décembre 17:24 7.6°C 91% 12.1 km/h S 1005.1 hPa 0 mm
04 décembre 17:23 7.5°C 91% 11.6 km/h S 1005.1 hPa 0 mm
04 décembre 17:22 7.6°C 91% 12.1 km/h SE 1005.0 hPa 0 mm
04 décembre 17:21 7.6°C 91% 11.6 km/h SSE 1005.0 hPa 0 mm
04 décembre 17:20 7.6°C 91% 13.7 km/h SSE 1005.0 hPa 0 mm
04 décembre 17:19 7.6°C 91% 11.6 km/h S 1005.0 hPa 0 mm
04 décembre 17:18 7.5°C 91% 13.7 km/h SSE 1005.0 hPa 0 mm
04 décembre 17:17 7.6°C 91% 11.6 km/h SSE 1005.0 hPa 0 mm
04 décembre 17:16 7.5°C 91% 12.1 km/h S 1005.0 hPa 0 mm
04 décembre 17:15 7.5°C 91% 14.2 km/h SE 1005.0 hPa 0 mm
04 décembre 17:14 7.5°C 91% 10.6 km/h SSE 1005.0 hPa 0 mm
04 décembre 17:13 7.5°C 91% 11.1 km/h SE 1005.0 hPa 0 mm
04 décembre 17:12 7.5°C 91% 11.6 km/h SE 1005.0 hPa 0 mm
04 décembre 17:11 7.5°C 91% 12.1 km/h SSE 1005.0 hPa 0 mm
04 décembre 17:10 7.6°C 91% 14.8 km/h SE 1005.0 hPa 0 mm
04 décembre 17:09 7.6°C 91% 11.6 km/h SSE 1005.0 hPa 0 mm
04 décembre 17:08 7.6°C 91% 12.7 km/h SSE 1005.0 hPa 0 mm
04 décembre 17:07 7.5°C 91% 13.7 km/h SE 1005.0 hPa 0 mm
04 décembre 17:06 7.4°C 91% 11.6 km/h SSE 1005.1 hPa 0 mm
04 décembre 17:05 7.4°C 91% 9.0 km/h ESE 1005.1 hPa 0 mm
04 décembre 17:04 7.4°C 91% 7.9 km/h S 1005.1 hPa 0 mm
04 décembre 17:03 7.4°C 91% 6.3 km/h S 1005.2 hPa 0 mm
04 décembre 17:02 7.5°C 91% 7.9 km/h SSO 1005.3 hPa 0 mm
04 décembre 17:01 7.5°C 91% 6.9 km/h S 1005.2 hPa 0 mm
04 décembre 17:00 7.5°C 91% 9.0 km/h S 1005.2 hPa 0 mm
04 décembre 16:59 7.4°C 91% 11.1 km/h SSO 1005.2 hPa 0 mm
04 décembre 16:58 7.4°C 91% 11.1 km/h SSO 1005.3 hPa 0 mm
04 décembre 16:57 7.5°C 91% 11.1 km/h SSO 1005.2 hPa 0 mm
04 décembre 16:56 7.5°C 91% 12.1 km/h SSO 1005.3 hPa 0 mm
04 décembre 16:55 7.5°C 91% 10.6 km/h S 1005.2 hPa 0 mm
04 décembre 16:54 7.6°C 91% 12.1 km/h S 1005.2 hPa 0 mm
04 décembre 16:53 7.6°C 91% 11.1 km/h S 1005.1 hPa 0 mm
04 décembre 16:52 7.6°C 91% 10.6 km/h S 1005.1 hPa 0 mm
04 décembre 16:51 7.5°C 91% 13.2 km/h SE 1005.1 hPa 0 mm
04 décembre 16:50 7.6°C 91% 13.7 km/h SE 1005.1 hPa 0 mm
04 décembre 16:49 7.5°C 91% 13.7 km/h SSE 1005.1 hPa 0 mm
04 décembre 16:48 7.5°C 91% 14.8 km/h S 1005.1 hPa 0 mm
04 décembre 16:47 7.5°C 91% 13.2 km/h SO 1005.1 hPa 0 mm
04 décembre 16:46 7.5°C 91% 14.8 km/h S 1005.1 hPa 0 mm
04 décembre 16:45 7.5°C 91% 11.1 km/h SSE 1005.1 hPa 0 mm
04 décembre 16:44 7.6°C 91% 11.1 km/h SSO 1005.0 hPa 0 mm
04 décembre 16:43 7.7°C 91% 12.7 km/h SSO 1005.1 hPa 0 mm
04 décembre 16:42 7.7°C 91% 11.6 km/h SE 1005.1 hPa 0 mm
04 décembre 16:41 7.7°C 91% 9.5 km/h SSO 1005.1 hPa 0 mm
04 décembre 16:40 7.8°C 91% 10.0 km/h SSO 1005.1 hPa 0 mm
04 décembre 16:39 7.9°C 91% 10.6 km/h SSO 1005.1 hPa 0 mm
04 décembre 16:38 7.9°C 91% 9.5 km/h SSO 1005.1 hPa 0 mm
04 décembre 16:37 8.0°C 91% 8.4 km/h SSO 1005.1 hPa 0 mm
04 décembre 16:36 8.0°C 91% 6.9 km/h SO 1005.1 hPa 0 mm
04 décembre 16:35 8.0°C 91% 7.9 km/h SSO 1005.1 hPa 0 mm
04 décembre 16:34 8.0°C 91% 8.4 km/h SSO 1005.1 hPa 0 mm
04 décembre 16:33 8.0°C 91% 9.5 km/h SSO 1005.1 hPa 0 mm
04 décembre 16:32 8.0°C 91% 9.0 km/h S 1005.0 hPa 0 mm
04 décembre 16:31 8.0°C 91% 10.0 km/h S 1005.0 hPa 0 mm
04 décembre 16:30 8.0°C 91% 11.6 km/h SSO 1004.9 hPa 0 mm
04 décembre 16:29 8.0°C 90% 11.1 km/h SSO 1004.9 hPa 0 mm